Wetterdaten: Sonntag, 02.01.2022
Datum Zeit Temp. Aussen Temp. o. S. Temp +5cm Feuchte Auss Luftdruck Regen Sonnenschein Regendauer Solar Windben Empfang
02.01.2022 00:00 10,3 C 9,4 C 7,2 C 95 % 1019,6 hPa 0,0 l/m 0 min 0 min 0 W/m 12,9 km/h (3 Bft) 95,74 %
02.01.2022 00:02 10,3 C 9,4 C 7,2 C 95 % 1019,7 hPa 0,0 l/m 0 min 0 min 0 W/m 12,9 km/h (3 Bft) 97,62 %
02.01.2022 00:04 10,3 C 9,4 C 7,2 C 95 % 1019,8 hPa 0,0 l/m 0 min 0 min 0 W/m 16,1 km/h (3 Bft) 96,00 %
02.01.2022 00:08 10,3 C 9,4 C 7,2 C 95 % 1019,7 hPa 0,0 l/m 0 min 0 min 0 W/m 19,3 km/h (3 Bft) 95,24 %
02.01.2022 00:10 10,3 C 9,4 C 7,2 C 95 % 1019,6 hPa 0,0 l/m 0 min 0 min 0 W/m 12,9 km/h (3 Bft) 95,74 %
02.01.2022 00:12 10,3 C 9,4 C 7,2 C 95 % 1019,6 hPa 0,0 l/m 0 min 0 min 0 W/m 12,9 km/h (3 Bft) 95,74 %
02.01.2022 00:14 10,3 C 9,4 C 7,2 C 95 % 1019,6 hPa 0,0 l/m 0 min 0 min 0 W/m 19,3 km/h (3 Bft) 95,65 %
02.01.2022 00:16 10,3 C 9,4 C 7,2 C 95 % 1019,5 hPa 0,0 l/m 0 min 0 min 0 W/m 16,1 km/h (3 Bft) 91,49 %
02.01.2022 00:18 10,3 C 9,4 C 7,2 C 95 % 1019,4 hPa 0,0 l/m 0 min 0 min 0 W/m 19,3 km/h (3 Bft) 93,62 %
02.01.2022 00:20 10,3 C 9,4 C 7,2 C 95 % 1019,4 hPa 0,0 l/m 0 min 0 min 0 W/m 12,9 km/h (3 Bft) 93,62 %
02.01.2022 00:22 10,3 C 9,4 C 7,2 C 95 % 1019,5 hPa 0,0 l/m 0 min 0 min 0 W/m 19,3 km/h (3 Bft) 95,74 %
02.01.2022 00:24 10,3 C 9,4 C 7,2 C 95 % 1019,4 hPa 0,0 l/m 0 min 0 min 0 W/m 12,9 km/h (3 Bft) 97,87 %
02.01.2022 00:26 10,3 C 9,4 C 7,2 C 95 % 1019,4 hPa 0,0 l/m 0 min 0 min 0 W/m 16,1 km/h (3 Bft) 97,87 %
02.01.2022 00:28 10,2 C 9,4 C 7,2 C 95 % 1019,4 hPa 0,0 l/m 0 min 0 min 0 W/m 12,9 km/h (3 Bft) 95,65 %
02.01.2022 00:30 10,2 C 9,4 C 7,2 C 95 % 1019,3 hPa 0,0 l/m 0 min 0 min 0 W/m 16,1 km/h (3 Bft) 97,87 %
02.01.2022 00:32 10,2 C 9,4 C 7,2 C 95 % 1019,3 hPa 0,0 l/m 0 min 0 min 0 W/m 16,1 km/h (3 Bft) 97,87 %
02.01.2022 00:34 10,2 C 9,4 C 7,2 C 95 % 1019,3 hPa 0,0 l/m 0 min 0 min 0 W/m 22,5 km/h (4 Bft) 97,87 %
02.01.2022 00:36 10,2 C 9,4 C 7,2 C 95 % 1019,3 hPa 0,0 l/m 0 min 0 min 0 W/m 19,3 km/h (3 Bft) 97,87 %
02.01.2022 00:38 10,2 C 9,4 C 7,2 C 95 % 1019,3 hPa 0,0 l/m 0 min 0 min 0 W/m 19,3 km/h (3 Bft) 93,48 %
02.01.2022 00:40 10,2 C 9,4 C 7,2 C 95 % 1019,2 hPa 0,0 l/m 0 min 0 min 0 W/m 16,1 km/h (3 Bft) 97,87 %
02.01.2022 00:42 10,2 C 9,4 C 7,2 C 95 % 1019,1 hPa 0,0 l/m 0 min 0 min 0 W/m 12,9 km/h (3 Bft) 97,87 %
02.01.2022 00:44 10,2 C 9,4 C 7,2 C 95 % 1019,0 hPa 0,0 l/m 0 min 0 min 0 W/m 19,3 km/h (3 Bft) 95,74 %
02.01.2022 00:46 10,2 C 9,4 C 7,2 C 95 % 1019,0 hPa 0,0 l/m 0 min 0 min 0 W/m 16,1 km/h (3 Bft) 97,87 %
02.01.2022 00:48 10,2 C 9,4 C 7,2 C 95 % 1019,1 hPa 0,0 l/m 0 min 0 min 0 W/m 22,5 km/h (4 Bft) 97,87 %
02.01.2022 00:50 10,2 C 9,4 C 7,2 C 95 % 1019,1 hPa 0,0 l/m 0 min 0 min 0 W/m 16,1 km/h (3 Bft) 97,83 %
02.01.2022 00:52 10,2 C 9,4 C 7,2 C 95 % 1019,0 hPa 0,0 l/m 0 min 0 min 0 W/m 16,1 km/h (3 Bft) 97,87 %
02.01.2022 00:54 10,2 C 9,4 C 7,2 C 95 % 1019,0 hPa 0,0 l/m 0 min 0 min 0 W/m 16,1 km/h (3 Bft) 97,87 %
02.01.2022 00:56 10,2 C 9,4 C 7,2 C 95 % 1019,0 hPa 0,0 l/m 0 min 0 min 0 W/m 22,5 km/h (4 Bft) 97,87 %
02.01.2022 00:58 10,2 C 9,4 C 7,2 C 95 % 1019,1 hPa 0,0 l/m 0 min 0 min 0 W/m 19,3 km/h (3 Bft) 100,00 %
02.01.2022 01:00 10,2 C 9,4 C 7,2 C 95 % 1019,0 hPa 0,0 l/m 0 min 0 min 0 W/m 16,1 km/h (3 Bft) 100,00 %
02.01.2022 01:02 10,2 C 9,4 C 7,2 C 95 % 1018,8 hPa 0,0 l/m 0 min 0 min 0 W/m 16,1 km/h (3 Bft) 100,00 %
02.01.2022 01:04 10,2 C 9,4 C 7,2 C 95 % 1018,9 hPa 0,0 l/m 0 min 0 min 0 W/m 19,3 km/h (3 Bft) 100,00 %
02.01.2022 01:06 10,2 C 9,4 C 7,2 C 95 % 1018,9 hPa 0,0 l/m 0 min 0 min 0 W/m 16,1 km/h (3 Bft) 100,00 %
02.01.2022 01:08 10,2 C 9,4 C 7,2 C 95 % 1019,0 hPa 0,0 l/m 0 min 0 min 0 W/m 16,1 km/h (3 Bft) 100,00 %
02.01.2022 01:10 10,2 C 9,4 C 7,2 C 95 % 1019,0 hPa 0,0 l/m 0 min 0 min 0 W/m 6,4 km/h (2 Bft) 95,74 %
02.01.2022 01:12 10,2 C 9,4 C 7,2 C 95 % 1019,1 hPa 0,0 l/m 0 min 0 min 0 W/m 6,4 km/h (2 Bft) 100,00 %
02.01.2022 01:14 10,2 C 9,4 C 7,2 C 95 % 1019,0 hPa 0,0 l/m 0 min 0 min 0 W/m 16,1 km/h (3 Bft) 100,00 %
02.01.2022 01:16 10,2 C 9,4 C 7,2 C 95 % 1019,0 hPa 0,0 l/m 0 min 0 min 0 W/m 16,1 km/h (3 Bft) 100,00 %
02.01.2022 01:18 10,2 C 9,4 C 7,2 C 95 % 1018,9 hPa 0,0 l/m 0 min 0 min 0 W/m 12,9 km/h (3 Bft) 97,87 %
02.01.2022 01:20 10,2 C 9,4 C 7,2 C 95 % 1018,9 hPa 0,0 l/m 0 min 0 min 0 W/m 16,1 km/h (3 Bft) 97,87 %
02.01.2022 01:22 10,2 C 9,4 C 7,2 C 95 % 1018,9 hPa 0,0 l/m 0 min 0 min 0 W/m 12,9 km/h (3 Bft) 97,87 %
02.01.2022 01:24 10,2 C 9,4 C 7,2 C 95 % 1018,9 hPa 0,0 l/m 0 min 0 min 0 W/m 6,4 km/h (2 Bft) 97,87 %
02.01.2022 01:26 10,2 C 9,4 C 7,2 C 95 % 1018,9 hPa 0,0 l/m 0 min 0 min 0 W/m 19,3 km/h (3 Bft) 97,83 %
02.01.2022 01:28 10,2 C 9,4 C 7,2 C 95 % 1019,0 hPa 0,0 l/m 0 min 0 min 0 W/m 12,9 km/h (3 Bft) 97,87 %
02.01.2022 01:30 10,2 C 9,4 C 7,2 C 95 % 1018,9 hPa 0,0 l/m 0 min 0 min 0 W/m 16,1 km/h (3 Bft) 97,87 %
02.01.2022 01:32 10,2 C 9,4 C 7,2 C 95 % 1018,9 hPa 0,0 l/m 0 min 0 min 0 W/m 12,9 km/h (3 Bft) 97,87 %
02.01.2022 01:34 10,2 C 9,4 C 7,2 C 95 % 1018,8 hPa 0,0 l/m 0 min 0 min 0 W/m 6,4 km/h (2 Bft) 97,87 %
02.01.2022 01:36 10,1 C 9,4 C 7,2 C 95 % 1018,9 hPa 0,0 l/m 0 min 0 min 0 W/m 6,4 km/h (2 Bft) 97,87 %
02.01.2022 01:38 10,1 C 9,4 C 7,2 C 95 % 1019,0 hPa 0,0 l/m 0 min 0 min 0 W/m 12,9 km/h (3 Bft) 97,83 %
02.01.2022 01:40 10,1 C 9,4 C 7,2 C 95 % 1019,0 hPa 0,0 l/m 0 min 0 min 0 W/m 9,7 km/h (2 Bft) 97,87 %
02.01.2022 01:42 10,1 C 9,4 C 7,2 C 95 % 1019,1 hPa 0,0 l/m 0 min 0 min 0 W/m 12,9 km/h (3 Bft) 97,87 %
02.01.2022 01:44 10,1 C 9,4 C 7,2 C 95 % 1019,0 hPa 0,0 l/m 0 min 0 min 0 W/m 12,9 km/h (3 Bft) 97,87 %
02.01.2022 01:46 10,1 C 9,4 C 7,2 C 95 % 1019,0 hPa 0,0 l/m 0 min 0 min 0 W/m 16,1 km/h (3 Bft) 97,87 %
02.01.2022 01:48 10,1 C 9,4 C 7,2 C 95 % 1019,0 hPa 0,0 l/m 0 min 0 min 0 W/m 19,3 km/h (3 Bft) 97,87 %
02.01.2022 01:50 10,1 C 9,4 C 7,2 C 95 % 1018,9 hPa 0,0 l/m 0 min 0 min 0 W/m 9,7 km/h (2 Bft) 97,83 %
02.01.2022 01:52 10,1 C 9,4 C 7,2 C 95 % 1019,0 hPa 0,0 l/m 0 min 0 min 0 W/m 12,9 km/h (3 Bft) 97,87 %
02.01.2022 01:54 10,1 C 9,4 C 7,2 C 95 % 1019,0 hPa 0,0 l/m 0 min 0 min 0 W/m 6,4 km/h (2 Bft) 97,87 %
02.01.2022 01:56 10,1 C 9,4 C 7,2 C 95 % 1018,9 hPa 0,0 l/m 0 min 0 min 0 W/m 12,9 km/h (3 Bft) 100,00 %
02.01.2022 01:58 10,1 C 9,4 C 7,2 C 95 % 1018,9 hPa 0,0 l/m 0 min 0 min 0 W/m 6,4 km/h (2 Bft) 100,00 %
02.01.2022 02:00 10,1 C 9,4 C 7,2 C 95 % 1018,9 hPa 0,0 l/m 0 min 0 min 0 W/m 16,1 km/h (3 Bft) 100,00 %
02.01.2022 02:02 10,1 C 9,4 C 7,2 C 95 % 1019,0 hPa 0,0 l/m 0 min 0 min 0 W/m 12,9 km/h (3 Bft) 100,00 %
02.01.2022 02:04 10,1 C 9,4 C 7,2 C 95 % 1019,0 hPa 0,0 l/m 0 min 0 min 0 W/m 6,4 km/h (2 Bft) 100,00 %
02.01.2022 02:06 10,1 C 9,4 C 7,2 C 95 % 1018,8 hPa 0,0 l/m 0 min 0 min 0 W/m 16,1 km/h (3 Bft) 97,87 %
02.01.2022 02:08 10,1 C 9,4 C 7,2 C 95 % 1018,9 hPa 0,0 l/m 0 min 0 min 0 W/m 6,4 km/h (2 Bft) 100,00 %
02.01.2022 02:10 10,1 C 9,4 C 7,2 C 95 % 1018,9 hPa 0,0 l/m 0 min 0 min 0 W/m 12,9 km/h (3 Bft) 100,00 %
02.01.2022 02:12 10,1 C 9,4 C 7,2 C 95 % 1018,8 hPa 0,0 l/m 0 min 0 min 0 W/m 12,9 km/h (3 Bft) 97,83 %
02.01.2022 02:14 10,1 C 9,4 C 7,2 C 95 % 1018,8 hPa 0,0 l/m 0 min 0 min 0 W/m 12,9 km/h (3 Bft) 100,00 %
02.01.2022 02:16 10,1 C 9,4 C 7,2 C 95 % 1018,8 hPa 0,0 l/m 0 min 0 min 0 W/m 16,1 km/h (3 Bft) 100,00 %
02.01.2022 02:18 10,1 C 9,4 C 7,2 C 95 % 1018,9 hPa 0,0 l/m 0 min 0 min 0 W/m 12,9 km/h (3 Bft) 100,00 %
02.01.2022 02:20 10,1 C 9,4 C 7,2 C 95 % 1019,0 hPa 0,0 l/m 0 min 0 min 0 W/m 12,9 km/h (3 Bft) 100,00 %
02.01.2022 02:22 10,1 C 9,4 C 7,2 C 95 % 1019,1 hPa 0,0 l/m 0 min 0 min 0 W/m 6,4 km/h (2 Bft) 100,00 %
02.01.2022 02:24 10,1 C 9,4 C 7,2 C 95 % 1019,1 hPa 0,0 l/m 0 min 0 min 0 W/m 6,4 km/h (2 Bft) 97,83 %
02.01.2022 02:26 10,1 C 9,4 C 7,2 C 95 % 1019,1 hPa 0,0 l/m 0 min 0 min 0 W/m 9,7 km/h (2 Bft) 93,62 %
02.01.2022 02:28 10,1 C 9,4 C 7,2 C 95 % 1019,1 hPa 0,0 l/m 0 min 0 min 0 W/m 12,9 km/h (3 Bft) 97,87 %
02.01.2022 02:30 10,1 C 9,4 C 7,2 C 95 % 1019,2 hPa 0,0 l/m 0 min 0 min 0 W/m 6,4 km/h (2 Bft) 97,87 %
02.01.2022 02:32 10,1 C 9,4 C 7,2 C 94 % 1019,1 hPa 0,0 l/m 0 min 2 min 0 W/m 6,4 km/h (2 Bft) 97,87 %
02.01.2022 02:34 10,1 C 9,4 C 7,2 C 94 % 1018,9 hPa 0,0 l/m 0 min 0 min 0 W/m 6,4 km/h (2 Bft) 95,74 %
02.01.2022 02:36 10,1 C 9,4 C 7,2 C 94 % 1019,0 hPa 0,0 l/m 0 min 0 min 0 W/m 6,4 km/h (2 Bft) 97,83 %
02.01.2022 02:38 10,1 C 9,4 C 7,2 C 94 % 1019,0 hPa 0,0 l/m 0 min 0 min 0 W/m 6,4 km/h (2 Bft) 97,87 %
02.01.2022 02:40 10,1 C 9,4 C 7,2 C 94 % 1019,0 hPa 0,0 l/m 0 min 0 min 0 W/m 12,9 km/h (3 Bft) 97,87 %
02.01.2022 02:42 10,1 C 9,4 C 7,2 C 94 % 1018,9 hPa 0,0 l/m 0 min 0 min 0 W/m 12,9 km/h (3 Bft) 93,62 %
02.01.2022 02:44 10,1 C 9,4 C 7,2 C 94 % 1018,9 hPa 0,0 l/m 0 min 0 min 0 W/m 16,1 km/h (3 Bft) 97,87 %
02.01.2022 02:46 10,1 C 9,4 C 7,2 C 94 % 1018,9 hPa 0,0 l/m 0 min 2 min 0 W/m 12,9 km/h (3 Bft) 97,87 %
02.01.2022 02:48 10,1 C 9,4 C 7,2 C 94 % 1018,8 hPa 0,0 l/m 0 min 0 min 0 W/m 6,4 km/h (2 Bft) 95,65 %
02.01.2022 02:50 10,1 C 9,4 C 7,2 C 94 % 1018,9 hPa 0,0 l/m 0 min 0 min 0 W/m 6,4 km/h (2 Bft) 97,87 %
02.01.2022 02:52 10,1 C 9,4 C 7,2 C 94 % 1018,8 hPa 0,0 l/m 0 min 0 min 0 W/m 12,9 km/h (3 Bft) 95,74 %
02.01.2022 02:54 10,1 C 9,4 C 7,2 C 94 % 1018,8 hPa 0,0 l/m 0 min 0 min 0 W/m 9,7 km/h (2 Bft) 95,74 %
02.01.2022 02:56 10,2 C 9,4 C 7,2 C 94 % 1018,7 hPa 0,0 l/m 0 min 0 min 0 W/m 6,4 km/h (2 Bft) 93,62 %
02.01.2022 02:58 10,1 C 9,4 C 7,2 C 94 % 1018,5 hPa 0,0 l/m 0 min 0 min 0 W/m 3,2 km/h (1 Bft) 95,74 %
02.01.2022 03:00 10,1 C 9,4 C 7,2 C 94 % 1018,6 hPa 0,0 l/m 0 min 0 min 0 W/m 6,4 km/h (2 Bft) 93,48 %
02.01.2022 03:02 10,1 C 9,4 C 7,2 C 94 % 1018,7 hPa 0,0 l/m 0 min 0 min 0 W/m 3,2 km/h (1 Bft) 95,74 %
02.01.2022 03:04 10,2 C 9,4 C 7,2 C 94 % 1018,8 hPa 0,0 l/m 0 min 0 min 0 W/m 6,4 km/h (2 Bft) 95,74 %
02.01.2022 03:06 10,2 C 9,4 C 7,2 C 94 % 1018,9 hPa 0,0 l/m 0 min 0 min 0 W/m 6,4 km/h (2 Bft) 95,74 %
02.01.2022 03:08 10,2 C 9,4 C 7,2 C 94 % 1018,9 hPa 0,0 l/m 0 min 0 min 0 W/m 6,4 km/h (2 Bft) 93,62 %
02.01.2022 03:10 10,2 C 9,4 C 7,2 C 94 % 1018,8 hPa 0,0 l/m 0 min 0 min 0 W/m 12,9 km/h (3 Bft) 95,74 %
02.01.2022 03:12 10,2 C 9,4 C 7,2 C 94 % 1018,7 hPa 0,0 l/m 0 min 0 min 0 W/m 6,4 km/h (2 Bft) 95,65 %
02.01.2022 03:14 10,2 C 9,4 C 7,2 C 94 % 1018,7 hPa 0,0 l/m 0 min 0 min 0 W/m 6,4 km/h (2 Bft) 95,74 %
02.01.2022 03:16 10,2 C 9,4 C 7,2 C 94 % 1018,6 hPa 0,0 l/m 0 min 0 min 0 W/m 6,4 km/h (2 Bft) 97,92 %
02.01.2022 03:18 10,2 C 9,4 C 7,2 C 94 % 1018,6 hPa 0,0 l/m 0 min 0 min 0 W/m 12,9 km/h (3 Bft) 95,74 %
02.01.2022 03:20 10,1 C 9,4 C 7,2 C 94 % 1018,7 hPa 0,0 l/m 0 min 0 min 0 W/m 12,9 km/h (3 Bft) 95,74 %
02.01.2022 03:22 10,1 C 9,4 C 7,2 C 94 % 1018,7 hPa 0,0 l/m 0 min 0 min 0 W/m 12,9 km/h (3 Bft) 93,62 %
02.01.2022 03:24 10,1 C 9,4 C 7,2 C 94 % 1018,7 hPa 0,0 l/m 0 min 0 min 0 W/m 16,1 km/h (3 Bft) 95,65 %
02.01.2022 03:26 10,1 C 9,4 C 7,2 C 94 % 1018,6 hPa 0,0 l/m 0 min 0 min 0 W/m 12,9 km/h (3 Bft) 95,74 %
02.01.2022 03:28 10,1 C 9,4 C 7,2 C 94 % 1018,6 hPa 0,0 l/m 0 min 0 min 0 W/m 12,9 km/h (3 Bft) 93,62 %
02.01.2022 03:30 10,1 C 9,4 C 7,2 C 94 % 1018,5 hPa 0,0 l/m 0 min 0 min 0 W/m 16,1 km/h (3 Bft) 95,74 %
02.01.2022 03:32 10,1 C 9,4 C 7,2 C 94 % 1018,5 hPa 0,0 l/m 0 min 0 min 0 W/m 12,9 km/h (3 Bft) 95,74 %
02.01.2022 03:34 10,1 C 9,4 C 7,2 C 94 % 1018,4 hPa 0,0 l/m 0 min 0 min 0 W/m 12,9 km/h (3 Bft) 97,83 %
02.01.2022 03:36 10,1 C 9,4 C 7,2 C 94 % 1018,4 hPa 0,0 l/m 0 min 0 min 0 W/m 12,9 km/h (3 Bft) 97,87 %
02.01.2022 03:38 10,1 C 9,4 C 7,2 C 94 % 1018,2 hPa 0,0 l/m 0 min 0 min 0 W/m 6,4 km/h (2 Bft) 97,87 %
02.01.2022 03:40 10,1 C 9,4 C 7,2 C 94 % 1018,0 hPa 0,0 l/m 0 min 0 min 0 W/m 6,4 km/h (2 Bft) 97,87 %
02.01.2022 03:42 10,1 C 9,4 C 7,2 C 94 % 1018,0 hPa 0,0 l/m 0 min 2 min 0 W/m 6,4 km/h (2 Bft) 97,87 %
02.01.2022 03:44 10,1 C 9,4 C 7,2 C 94 % 1017,9 hPa 0,0 l/m 0 min 0 min 0 W/m 12,9 km/h (3 Bft) 97,87 %
02.01.2022 03:46 10,1 C 9,4 C 7,2 C 94 % 1017,9 hPa 0,0 l/m 0 min 0 min 0 W/m 6,4 km/h (2 Bft) 97,83 %
02.01.2022 03:48 10,1 C 9,4 C 7,2 C 94 % 1017,8 hPa 0,0 l/m 0 min 0 min 0 W/m 6,4 km/h (2 Bft) 95,74 %
02.01.2022 03:50 10,1 C 9,4 C 7,2 C 94 % 1017,8 hPa 0,0 l/m 0 min 0 min 0 W/m 12,9 km/h (3 Bft) 97,87 %
02.01.2022 03:52 10,1 C 9,4 C 7,2 C 94 % 1018,0 hPa 0,0 l/m 0 min 0 min 0 W/m 12,9 km/h (3 Bft) 100,00 %
02.01.2022 03:54 10,1 C 9,4 C 7,2 C 94 % 1018,0 hPa 0,0 l/m 0 min 0 min 0 W/m 12,9 km/h (3 Bft) 100,00 %
02.01.2022 03:56 10,1 C 9,4 C 7,2 C 94 % 1017,9 hPa 0,0 l/m 0 min 0 min 0 W/m 12,9 km/h (3 Bft) 100,00 %
02.01.2022 03:58 10,1 C 9,4 C 7,2 C 94 % 1017,8 hPa 0,0 l/m 0 min 0 min 0 W/m 9,7 km/h (2 Bft) 100,00 %
02.01.2022 04:00 10,1 C 9,4 C 7,2 C 94 % 1017,9 hPa 0,0 l/m 0 min 0 min 0 W/m 6,4 km/h (2 Bft) 100,00 %
02.01.2022 04:02 10,1 C 9,4 C 7,2 C 94 % 1017,9 hPa 0,0 l/m 0 min 0 min 0 W/m 6,4 km/h (2 Bft) 100,00 %
02.01.2022 04:04 10,1 C 9,4 C 7,2 C 94 % 1018,0 hPa 0,0 l/m 0 min 0 min 0 W/m 12,9 km/h (3 Bft) 97,87 %
02.01.2022 04:06 10,1 C 9,4 C 7,2 C 94 % 1017,9 hPa 0,0 l/m 0 min 0 min 0 W/m 6,4 km/h (2 Bft) 100,00 %
02.01.2022 04:08 10,1 C 9,4 C 7,2 C 94 % 1017,9 hPa 0,0 l/m 0 min 0 min 0 W/m 6,4 km/h (2 Bft) 100,00 %
02.01.2022 04:10 10,1 C 9,4 C 7,2 C 94 % 1017,9 hPa 0,0 l/m 0 min 0 min 0 W/m 12,9 km/h (3 Bft) 97,83 %
02.01.2022 04:12 10,1 C 9,4 C 7,2 C 94 % 1017,9 hPa 0,0 l/m 0 min 0 min 0 W/m 16,1 km/h (3 Bft) 100,00 %
02.01.2022 04:14 10,1 C 9,4 C 7,2 C 94 % 1017,9 hPa 0,0 l/m 0 min 0 min 0 W/m 12,9 km/h (3 Bft) 100,00 %
02.01.2022 04:16 10,1 C 9,4 C 7,2 C 94 % 1017,9 hPa 0,0 l/m 0 min 0 min 0 W/m 12,9 km/h (3 Bft) 97,87 %
02.01.2022 04:18 10,1 C 9,4 C 7,2 C 94 % 1017,8 hPa 0,0 l/m 0 min 0 min 0 W/m 6,4 km/h (2 Bft) 100,00 %
02.01.2022 04:20 10,1 C 9,4 C 7,2 C 94 % 1017,7 hPa 0,0 l/m 0 min 0 min 0 W/m 16,1 km/h (3 Bft) 100,00 %
02.01.2022 04:22 10,1 C 9,4 C 7,2 C 94 % 1017,7 hPa 0,0 l/m 0 min 0 min 0 W/m 12,9 km/h (3 Bft) 100,00 %
02.01.2022 04:24 10,1 C 9,4 C 7,2 C 94 % 1017,7 hPa 0,0 l/m 0 min 0 min 0 W/m 12,9 km/h (3 Bft) 100,00 %
02.01.2022 04:26 10,1 C 9,4 C 7,2 C 94 % 1017,8 hPa 0,0 l/m 0 min 0 min 0 W/m 12,9 km/h (3 Bft) 100,00 %
02.01.2022 04:28 10,1 C 9,4 C 7,2 C 94 % 1017,8 hPa 0,0 l/m 0 min 0 min 0 W/m 12,9 km/h (3 Bft) 100,00 %
02.01.2022 04:30 10,1 C 9,4 C 7,2 C 94 % 1017,9 hPa 0,0 l/m 0 min 2 min 0 W/m 12,9 km/h (3 Bft) 100,00 %
02.01.2022 04:32 10,1 C 9,4 C 7,2 C 94 % 1017,9 hPa 0,0 l/m 0 min 0 min 0 W/m 12,9 km/h (3 Bft) 100,00 %
02.01.2022 04:34 10,2 C 9,4 C 7,2 C 94 % 1017,9 hPa 0,0 l/m 0 min 0 min 0 W/m 12,9 km/h (3 Bft) 100,00 %
02.01.2022 04:36 10,2 C 9,4 C 7,2 C 94 % 1017,9 hPa 0,0 l/m 0 min 2 min 0 W/m 12,9 km/h (3 Bft) 100,00 %
02.01.2022 04:38 10,2 C 9,4 C 7,2 C 94 % 1017,8 hPa 0,0 l/m 0 min 2 min 0 W/m 6,4 km/h (2 Bft) 100,00 %
02.01.2022 04:40 10,2 C 9,4 C 7,2 C 94 % 1017,8 hPa 0,0 l/m 0 min 0 min 0 W/m 6,4 km/h (2 Bft) 100,00 %
02.01.2022 04:42 10,2 C 9,4 C 7,2 C 94 % 1017,7 hPa 0,0 l/m 0 min 0 min 0 W/m 12,9 km/h (3 Bft) 100,00 %
02.01.2022 04:44 10,2 C 9,4 C 7,2 C 94 % 1017,6 hPa 0,0 l/m 0 min 0 min 0 W/m 16,1 km/h (3 Bft) 97,87 %
02.01.2022 04:46 10,2 C 9,4 C 7,2 C 94 % 1017,4 hPa 0,0 l/m 0 min 2 min 0 W/m 12,9 km/h (3 Bft) 97,83 %
02.01.2022 04:48 10,2 C 9,4 C 7,2 C 94 % 1017,3 hPa 0,0 l/m 0 min 0 min 0 W/m 12,9 km/h (3 Bft) 100,00 %
02.01.2022 04:50 10,2 C 9,4 C 7,2 C 94 % 1017,3 hPa 0,0 l/m 0 min 0 min 0 W/m 12,9 km/h (3 Bft) 100,00 %
02.01.2022 04:52 10,2 C 9,4 C 7,2 C 94 % 1017,3 hPa 0,0 l/m 0 min 0 min 0 W/m 16,1 km/h (3 Bft) 100,00 %
02.01.2022 04:54 10,2 C 9,4 C 7,2 C 94 % 1017,3 hPa 0,0 l/m 0 min 0 min 0 W/m 12,9 km/h (3 Bft) 100,00 %
02.01.2022 04:56 10,2 C 9,4 C 7,2 C 94 % 1017,3 hPa 0,0 l/m 0 min 2 min 0 W/m 16,1 km/h (3 Bft) 100,00 %
02.01.2022 04:58 10,2 C 9,4 C 6,7 C 94 % 1017,4 hPa 0,0 l/m 0 min 2 min 0 W/m 12,9 km/h (3 Bft) 97,83 %
02.01.2022 05:00 10,1 C 9,4 C 6,7 C 94 % 1017,3 hPa 0,0 l/m 0 min 2 min 0 W/m 16,1 km/h (3 Bft) 100,00 %
02.01.2022 05:02 10,2 C 9,4 C 6,7 C 94 % 1017,2 hPa 0,0 l/m 0 min 2 min 0 W/m 19,3 km/h (3 Bft) 100,00 %
02.01.2022 05:04 10,1 C 9,4 C 6,7 C 94 % 1017,2 hPa 0,0 l/m 0 min 2 min 0 W/m 19,3 km/h (3 Bft) 97,87 %
02.01.2022 05:06 10,1 C 9,4 C 6,7 C 94 % 1017,2 hPa 0,0 l/m 0 min 2 min 0 W/m 19,3 km/h (3 Bft) 97,87 %
02.01.2022 05:08 10,1 C 9,4 C 6,7 C 94 % 1017,2 hPa 0,0 l/m 0 min 2 min 0 W/m 16,1 km/h (3 Bft) 100,00 %
02.01.2022 05:10 10,1 C 9,4 C 6,7 C 95 % 1017,2 hPa 0,2 l/m 0 min 2 min 0 W/m 16,1 km/h (3 Bft) 95,83 %
02.01.2022 05:12 10,1 C 9,4 C 6,7 C 95 % 1017,2 hPa 0,0 l/m 0 min 2 min 0 W/m 16,1 km/h (3 Bft) 100,00 %
02.01.2022 05:14 10,1 C 9,4 C 6,7 C 95 % 1017,2 hPa 0,0 l/m 0 min 2 min 0 W/m 12,9 km/h (3 Bft) 100,00 %
02.01.2022 05:16 10,1 C 9,4 C 6,7 C 95 % 1017,2 hPa 0,0 l/m 0 min 2 min 0 W/m 16,1 km/h (3 Bft) 95,74 %
02.01.2022 05:18 10,1 C 9,4 C 6,7 C 95 % 1017,3 hPa 0,0 l/m 0 min 2 min 0 W/m 16,1 km/h (3 Bft) 95,74 %
02.01.2022 05:20 10,1 C 9,4 C 6,7 C 95 % 1017,3 hPa 0,0 l/m 0 min 2 min 0 W/m 12,9 km/h (3 Bft) 93,62 %
02.01.2022 05:22 10,1 C 9,4 C 6,7 C 95 % 1017,4 hPa 0,0 l/m 0 min 2 min 0 W/m 12,9 km/h (3 Bft) 93,48 %
02.01.2022 05:24 10,1 C 9,4 C 6,7 C 95 % 1017,4 hPa 0,0 l/m 0 min 2 min 0 W/m 3,2 km/h (1 Bft) 93,62 %
02.01.2022 05:26 10,1 C 9,4 C 6,7 C 95 % 1017,3 hPa 0,0 l/m 0 min 2 min 0 W/m 6,4 km/h (2 Bft) 93,62 %
02.01.2022 05:28 10,1 C 9,4 C 6,7 C 95 % 1017,3 hPa 0,0 l/m 0 min 2 min 0 W/m 12,9 km/h (3 Bft) 93,62 %
02.01.2022 05:30 10,1 C 9,4 C 6,7 C 95 % 1017,2 hPa 0,0 l/m 0 min 2 min 0 W/m 12,9 km/h (3 Bft) 93,62 %
02.01.2022 05:32 10,1 C 9,4 C 6,7 C 95 % 1017,1 hPa 0,0 l/m 0 min 2 min 0 W/m 12,9 km/h (3 Bft) 93,62 %
02.01.2022 05:34 10,1 C 9,4 C 6,7 C 95 % 1017,2 hPa 0,0 l/m 0 min 2 min 0 W/m 16,1 km/h (3 Bft) 93,48 %
02.01.2022 05:36 10,1 C 9,4 C 6,7 C 95 % 1017,2 hPa 0,0 l/m 0 min 2 min 0 W/m 16,1 km/h (3 Bft) 87,23 %
02.01.2022 05:38 10,1 C 9,4 C 6,7 C 95 % 1017,1 hPa 0,0 l/m 0 min 2 min 0 W/m 16,1 km/h (3 Bft) 93,62 %
02.01.2022 05:40 10,1 C 8,9 C 6,7 C 95 % 1017,1 hPa 0,0 l/m 0 min 2 min 0 W/m 12,9 km/h (3 Bft) 93,62 %
02.01.2022 05:42 10,1 C 8,9 C 6,7 C 95 % 1017,1 hPa 0,2 l/m 0 min 2 min 0 W/m 12,9 km/h (3 Bft) 93,62 %
02.01.2022 05:44 10,1 C 8,9 C 6,7 C 95 % 1017,0 hPa 0,0 l/m 0 min 2 min 0 W/m 16,1 km/h (3 Bft) 93,62 %
02.01.2022 05:46 10,1 C 8,9 C 6,7 C 95 % 1017,0 hPa 0,0 l/m 0 min 0 min 0 W/m 9,7 km/h (2 Bft) 95,65 %
02.01.2022 05:48 10,1 C 8,9 C 6,7 C 95 % 1017,1 hPa 0,0 l/m 0 min 0 min 0 W/m 12,9 km/h (3 Bft) 95,74 %
02.01.2022 05:50 10,0 C 8,9 C 6,7 C 95 % 1017,0 hPa 0,0 l/m 0 min 0 min 0 W/m 12,9 km/h (3 Bft) 93,62 %
02.01.2022 05:52 10,0 C 8,9 C 6,7 C 95 % 1017,0 hPa 0,0 l/m 0 min 2 min 0 W/m 12,9 km/h (3 Bft) 93,62 %
02.01.2022 05:54 10,0 C 8,9 C 6,7 C 95 % 1017,0 hPa 0,0 l/m 0 min 2 min 0 W/m 16,1 km/h (3 Bft) 91,49 %
02.01.2022 05:56 10,0 C 8,9 C 6,7 C 95 % 1016,9 hPa 0,0 l/m 0 min 2 min 0 W/m 16,1 km/h (3 Bft) 95,74 %
02.01.2022 05:58 10,0 C 8,9 C 6,7 C 95 % 1016,8 hPa 0,0 l/m 0 min 2 min 0 W/m 16,1 km/h (3 Bft) 95,65 %
02.01.2022 06:00 9,9 C 8,9 C 6,7 C 95 % 1016,7 hPa 0,0 l/m 0 min 2 min 0 W/m 16,1 km/h (3 Bft) 95,74 %
02.01.2022 06:02 9,9 C 8,9 C 6,7 C 96 % 1016,6 hPa 0,0 l/m 0 min 2 min 0 W/m 16,1 km/h (3 Bft) 95,74 %
02.01.2022 06:04 9,9 C 8,9 C 6,7 C 96 % 1016,6 hPa 0,0 l/m 0 min 2 min 0 W/m 12,9 km/h (3 Bft) 95,74 %
02.01.2022 06:06 9,9 C 8,9 C 6,7 C 96 % 1016,5 hPa 0,0 l/m 0 min 2 min 0 W/m 16,1 km/h (3 Bft) 95,74 %
02.01.2022 06:08 9,9 C 8,9 C 6,7 C 96 % 1016,5 hPa 0,0 l/m 0 min 2 min 0 W/m 12,9 km/h (3 Bft) 95,74 %
02.01.2022 06:10 9,9 C 8,9 C 6,7 C 96 % 1016,5 hPa 0,0 l/m 0 min 2 min 0 W/m 12,9 km/h (3 Bft) 97,83 %
02.01.2022 06:12 9,9 C 8,9 C 6,7 C 96 % 1016,5 hPa 0,0 l/m 0 min 2 min 0 W/m 12,9 km/h (3 Bft) 100,00 %
02.01.2022 06:14 9,9 C 9,4 C 6,7 C 96 % 1016,4 hPa 0,0 l/m 0 min 0 min 0 W/m 19,3 km/h (3 Bft) 100,00 %
02.01.2022 06:16 9,9 C 9,4 C 6,7 C 96 % 1016,4 hPa 0,2 l/m 0 min 2 min 0 W/m 16,1 km/h (3 Bft) 100,00 %
02.01.2022 06:18 9,9 C 9,4 C 6,7 C 96 % 1016,3 hPa 0,0 l/m 0 min 2 min 0 W/m 16,1 km/h (3 Bft) 97,87 %
02.01.2022 06:20 9,9 C 9,4 C 6,7 C 96 % 1016,4 hPa 0,0 l/m 0 min 0 min 0 W/m 16,1 km/h (3 Bft) 100,00 %
02.01.2022 06:22 9,9 C 9,4 C 6,7 C 96 % 1016,4 hPa 0,0 l/m 0 min 2 min 0 W/m 16,1 km/h (3 Bft) 97,83 %
02.01.2022 06:24 9,9 C 9,4 C 6,7 C 96 % 1016,4 hPa 0,0 l/m 0 min 0 min 0 W/m 16,1 km/h (3 Bft) 100,00 %
02.01.2022 06:26 9,9 C 9,4 C 6,7 C 96 % 1016,4 hPa 0,0 l/m 0 min 0 min 0 W/m 16,1 km/h (3 Bft) 100,00 %
02.01.2022 06:28 9,9 C 9,4 C 6,7 C 96 % 1016,4 hPa 0,0 l/m 0 min 0 min 0 W/m 16,1 km/h (3 Bft) 97,87 %
02.01.2022 06:30 9,9 C 9,4 C 6,7 C 96 % 1016,4 hPa 0,0 l/m 0 min 0 min 0 W/m 16,1 km/h (3 Bft) 100,00 %
02.01.2022 06:32 9,9 C 9,4 C 6,7 C 96 % 1016,4 hPa 0,0 l/m 0 min 0 min 0 W/m 16,1 km/h (3 Bft) 100,00 %
02.01.2022 06:34 9,9 C 9,4 C 6,7 C 96 % 1016,3 hPa 0,0 l/m 0 min 0 min 0 W/m 9,7 km/h (2 Bft) 100,00 %
02.01.2022 06:36 9,9 C 9,4 C 6,7 C 96 % 1016,3 hPa 0,0 l/m 0 min 2 min 0 W/m 12,9 km/h (3 Bft) 97,87 %
02.01.2022 06:38 9,9 C 9,4 C 6,7 C 96 % 1016,3 hPa 0,0 l/m 0 min 2 min 0 W/m 19,3 km/h (3 Bft) 100,00 %
02.01.2022 06:40 9,9 C 9,4 C 6,7 C 96 % 1016,2 hPa 0,0 l/m 0 min 2 min 0 W/m 16,1 km/h (3 Bft) 100,00 %
02.01.2022 06:42 9,9 C 9,4 C 6,7 C 96 % 1016,1 hPa 0,0 l/m 0 min 2 min 0 W/m 12,9 km/h (3 Bft) 97,87 %
02.01.2022 06:44 9,9 C 9,4 C 6,7 C 96 % 1016,1 hPa 0,0 l/m 0 min 2 min 0 W/m 12,9 km/h (3 Bft) 100,00 %
02.01.2022 06:46 9,9 C 9,4 C 6,7 C 96 % 1016,1 hPa 0,0 l/m 0 min 2 min 0 W/m 19,3 km/h (3 Bft) 100,00 %
02.01.2022 06:48 9,9 C 9,4 C 6,7 C 96 % 1016,1 hPa 0,0 l/m 0 min 2 min 0 W/m 16,1 km/h (3 Bft) 100,00 %
02.01.2022 06:50 9,9 C 9,4 C 6,7 C 96 % 1016,1 hPa 0,0 l/m 0 min 2 min 0 W/m 9,7 km/h (2 Bft) 100,00 %
02.01.2022 06:52 9,9 C 9,4 C 6,7 C 96 % 1016,1 hPa 0,0 l/m 0 min 2 min 0 W/m 12,9 km/h (3 Bft) 100,00 %
02.01.2022 06:54 9,9 C 9,4 C 6,7 C 96 % 1016,1 hPa 0,0 l/m 0 min 2 min 0 W/m 16,1 km/h (3 Bft) 97,83 %
02.01.2022 06:56 9,9 C 9,4 C 6,7 C 96 % 1016,1 hPa 0,0 l/m 0 min 2 min 0 W/m 16,1 km/h (3 Bft) 100,00 %
02.01.2022 06:58 9,9 C 9,4 C 6,7 C 96 % 1016,1 hPa 0,0 l/m 0 min 0 min 0 W/m 16,1 km/h (3 Bft) 97,87 %
02.01.2022 07:00 9,9 C 9,4 C 6,7 C 96 % 1016,0 hPa 0,0 l/m 0 min 0 min 0 W/m 9,7 km/h (2 Bft) 97,87 %
02.01.2022 07:02 9,9 C 9,4 C 6,7 C 96 % 1015,8 hPa 0,0 l/m 0 min 2 min 0 W/m 16,1 km/h (3 Bft) 97,87 %
02.01.2022 07:04 9,9 C 9,4 C 6,7 C 96 % 1015,7 hPa 0,2 l/m 0 min 0 min 0 W/m 16,1 km/h (3 Bft) 100,00 %
02.01.2022 07:06 9,9 C 9,4 C 6,7 C 96 % 1015,6 hPa 0,0 l/m 0 min 0 min 0 W/m 16,1 km/h (3 Bft) 100,00 %
02.01.2022 07:08 9,9 C 9,4 C 6,7 C 96 % 1015,6 hPa 0,0 l/m 0 min 0 min 0 W/m 12,9 km/h (3 Bft) 97,83 %
02.01.2022 07:10 9,9 C 9,4 C 6,7 C 96 % 1015,6 hPa 0,0 l/m 0 min 0 min 0 W/m 16,1 km/h (3 Bft) 97,87 %
02.01.2022 07:12 9,9 C 9,4 C 6,7 C 96 % 1015,6 hPa 0,0 l/m 0 min 0 min 0 W/m 19,3 km/h (3 Bft) 97,87 %
02.01.2022 07:14 9,9 C 9,4 C 6,7 C 96 % 1015,6 hPa 0,0 l/m 0 min 0 min 0 W/m 16,1 km/h (3 Bft) 97,87 %
02.01.2022 07:16 9,9 C 9,4 C 6,7 C 97 % 1015,5 hPa 0,0 l/m 0 min 0 min 0 W/m 16,1 km/h (3 Bft) 97,87 %
02.01.2022 07:18 9,9 C 9,4 C 6,7 C 97 % 1015,5 hPa 0,0 l/m 0 min 0 min 0 W/m 16,1 km/h (3 Bft) 97,87 %
02.01.2022 07:20 9,9 C 9,4 C 6,7 C 97 % 1015,5 hPa 0,0 l/m 0 min 0 min 0 W/m 25,7 km/h (4 Bft) 95,65 %
02.01.2022 07:22 9,9 C 9,4 C 6,7 C 97 % 1015,5 hPa 0,0 l/m 0 min 0 min 0 W/m 16,1 km/h (3 Bft) 97,87 %
02.01.2022 07:24 9,9 C 9,4 C 6,7 C 97 % 1015,5 hPa 0,0 l/m 0 min 0 min 0 W/m 19,3 km/h (3 Bft) 97,87 %
02.01.2022 07:26 9,9 C 9,4 C 6,7 C 97 % 1015,5 hPa 0,0 l/m 0 min 0 min 0 W/m 19,3 km/h (3 Bft) 97,87 %
02.01.2022 07:28 9,9 C 9,4 C 6,7 C 97 % 1015,5 hPa 0,0 l/m 0 min 0 min 0 W/m 19,3 km/h (3 Bft) 97,87 %
02.01.2022 07:30 9,9 C 9,4 C 6,7 C 97 % 1015,5 hPa 0,0 l/m 0 min 0 min 0 W/m 12,9 km/h (3 Bft) 97,87 %
02.01.2022 07:32 9,9 C 9,4 C 6,7 C 97 % 1015,4 hPa 0,0 l/m 0 min 0 min 0 W/m 19,3 km/h (3 Bft) 97,83 %
02.01.2022 07:34 9,9 C 9,4 C 6,7 C 97 % 1015,4 hPa 0,0 l/m 0 min 0 min 0 W/m 16,1 km/h (3 Bft) 97,87 %
02.01.2022 07:36 9,9 C 9,4 C 6,7 C 97 % 1015,3 hPa 0,0 l/m 0 min 0 min 0 W/m 19,3 km/h (3 Bft) 97,87 %
02.01.2022 07:38 9,9 C 9,4 C 6,7 C 97 % 1015,4 hPa 0,0 l/m 0 min 0 min 0 W/m 22,5 km/h (4 Bft) 95,74 %
02.01.2022 07:40 9,9 C 9,4 C 6,7 C 97 % 1015,3 hPa 0,0 l/m 0 min 2 min 0 W/m 16,1 km/h (3 Bft) 97,87 %
02.01.2022 07:42 9,9 C 9,4 C 6,7 C 97 % 1015,3 hPa 0,0 l/m 0 min 2 min 0 W/m 16,1 km/h (3 Bft) 97,83 %
02.01.2022 07:44 9,9 C 9,4 C 6,7 C 97 % 1015,2 hPa 0,0 l/m 0 min 0 min 0 W/m 12,9 km/h (3 Bft) 100,00 %
02.01.2022 07:46 9,9 C 9,4 C 6,7 C 97 % 1015,1 hPa 0,0 l/m 0 min 0 min 0 W/m 12,9 km/h (3 Bft) 97,87 %
02.01.2022 07:48 9,9 C 9,4 C 6,7 C 97 % 1014,9 hPa 0,0 l/m 0 min 0 min 0 W/m 19,3 km/h (3 Bft) 100,00 %
02.01.2022 07:50 9,9 C 9,4 C 6,7 C 97 % 1014,8 hPa 0,0 l/m 0 min 0 min 0 W/m 22,5 km/h (4 Bft) 100,00 %
02.01.2022 07:52 9,9 C 9,4 C 6,7 C 97 % 1014,8 hPa 0,0 l/m 0 min 0 min 0 W/m 22,5 km/h (4 Bft) 100,00 %
02.01.2022 07:54 9,9 C 9,4 C 6,7 C 97 % 1014,7 hPa 0,0 l/m 0 min 2 min 0 W/m 22,5 km/h (4 Bft) 100,00 %
02.01.2022 07:56 9,9 C 9,4 C 6,7 C 97 % 1014,6 hPa 0,0 l/m 0 min 0 min 0 W/m 22,5 km/h (4 Bft) 97,87 %
02.01.2022 07:58 9,9 C 9,4 C 6,7 C 97 % 1014,5 hPa 0,0 l/m 0 min 0 min 0 W/m 22,5 km/h (4 Bft) 95,74 %
02.01.2022 08:00 9,9 C 9,4 C 6,7 C 97 % 1014,5 hPa 0,0 l/m 0 min 0 min 0 W/m 16,1 km/h (3 Bft) 97,87 %
02.01.2022 08:02 9,9 C 9,4 C 6,7 C 97 % 1014,5 hPa 0,0 l/m 0 min 2 min 0 W/m 22,5 km/h (4 Bft) 97,87 %
02.01.2022 08:04 9,9 C 9,4 C 6,7 C 97 % 1014,5 hPa 0,0 l/m 0 min 0 min 0 W/m 22,5 km/h (4 Bft) 97,83 %
02.01.2022 08:06 9,9 C 9,4 C 6,7 C 97 % 1014,4 hPa 0,0 l/m 0 min 0 min 0 W/m 19,3 km/h (3 Bft) 97,83 %
02.01.2022 08:08 9,9 C 9,4 C 6,7 C 97 % 1014,4 hPa 0,0 l/m 0 min 0 min 0 W/m 19,3 km/h (3 Bft) 95,74 %
02.01.2022 08:10 9,9 C 9,4 C 6,7 C 97 % 1014,4 hPa 0,0 l/m 0 min 0 min 0 W/m 22,5 km/h (4 Bft) 97,87 %
02.01.2022 08:12 9,9 C 9,4 C 6,7 C 97 % 1014,4 hPa 0,0 l/m 0 min 0 min 0 W/m 16,1 km/h (3 Bft) 95,74 %
02.01.2022 08:14 9,9 C 9,4 C 6,7 C 97 % 1014,4 hPa 0,0 l/m 0 min 0 min 0 W/m 22,5 km/h (4 Bft) 97,87 %
02.01.2022 08:16 9,9 C 9,4 C 6,7 C 97 % 1014,4 hPa 0,0 l/m 0 min 0 min 0 W/m 19,3 km/h (3 Bft) 100,00 %
02.01.2022 08:18 9,9 C 9,4 C 6,7 C 97 % 1014,4 hPa 0,0 l/m 0 min 0 min 0 W/m 25,7 km/h (4 Bft) 97,83 %
02.01.2022 08:20 9,9 C 9,4 C 6,7 C 96 % 1014,4 hPa 0,0 l/m 0 min 0 min 0 W/m 19,3 km/h (3 Bft) 97,87 %
02.01.2022 08:22 10,0 C 9,4 C 6,7 C 96 % 1014,3 hPa 0,0 l/m 0 min 0 min 0 W/m 29,0 km/h (5 Bft) 95,74 %
02.01.2022 08:24 10,0 C 9,4 C 7,2 C 96 % 1014,3 hPa 0,0 l/m 0 min 0 min 0 W/m 22,5 km/h (4 Bft) 95,74 %
02.01.2022 08:26 10,0 C 9,4 C 7,2 C 96 % 1014,2 hPa 0,0 l/m 0 min 0 min 0 W/m 19,3 km/h (3 Bft) 95,74 %
02.01.2022 08:28 10,0 C 9,4 C 7,2 C 96 % 1014,1 hPa 0,0 l/m 0 min 0 min 0 W/m 19,3 km/h (3 Bft) 95,74 %
02.01.2022 08:30 10,1 C 9,4 C 7,2 C 96 % 1014,1 hPa 0,0 l/m 0 min 0 min 0 W/m 25,7 km/h (4 Bft) 93,48 %
02.01.2022 08:32 10,1 C 9,4 C 7,2 C 96 % 1014,1 hPa 0,0 l/m 0 min 0 min 0 W/m 19,3 km/h (3 Bft) 95,74 %
02.01.2022 08:34 10,1 C 9,4 C 7,2 C 96 % 1014,0 hPa 0,0 l/m 0 min 0 min 0 W/m 16,1 km/h (3 Bft) 95,74 %
02.01.2022 08:36 10,1 C 9,4 C 7,2 C 96 % 1013,9 hPa 0,0 l/m 0 min 2 min 0 W/m 19,3 km/h (3 Bft) 95,74 %
02.01.2022 08:38 10,1 C 9,4 C 7,2 C 96 % 1013,7 hPa 0,0 l/m 0 min 2 min 0 W/m 16,1 km/h (3 Bft) 97,87 %
02.01.2022 08:40 10,1 C 9,4 C 7,2 C 96 % 1013,6 hPa 0,0 l/m 0 min 2 min 0 W/m 19,3 km/h (3 Bft) 97,87 %
02.01.2022 08:42 10,1 C 9,4 C 6,7 C 96 % 1013,4 hPa 0,0 l/m 0 min 0 min 0 W/m 19,3 km/h (3 Bft) 97,83 %
02.01.2022 08:44 10,1 C 9,4 C 6,7 C 96 % 1013,2 hPa 0,0 l/m 0 min 0 min 0 W/m 22,5 km/h (4 Bft) 97,87 %
02.01.2022 08:46 10,1 C 9,4 C 6,7 C 96 % 1013,2 hPa 0,0 l/m 0 min 0 min 0 W/m 22,5 km/h (4 Bft) 95,74 %
02.01.2022 08:48 10,1 C 9,4 C 6,7 C 96 % 1013,1 hPa 0,0 l/m 0 min 0 min 0 W/m 12,9 km/h (3 Bft) 97,87 %
02.01.2022 08:50 10,1 C 9,4 C 6,7 C 96 % 1013,1 hPa 0,0 l/m 0 min 0 min 0 W/m 22,5 km/h (4 Bft) 95,74 %
02.01.2022 08:52 10,1 C 9,4 C 7,2 C 96 % 1013,1 hPa 0,0 l/m 0 min 0 min 0 W/m 19,3 km/h (3 Bft) 95,65 %
02.01.2022 08:54 10,1 C 9,4 C 7,2 C 96 % 1012,9 hPa 0,0 l/m 0 min 0 min 0 W/m 22,5 km/h (4 Bft) 95,74 %
02.01.2022 08:56 10,1 C 9,4 C 7,2 C 96 % 1013,0 hPa 0,0 l/m 0 min 0 min 0 W/m 12,9 km/h (3 Bft) 97,87 %
02.01.2022 08:58 10,1 C 9,4 C 7,2 C 96 % 1013,0 hPa 0,0 l/m 0 min 0 min 0 W/m 16,1 km/h (3 Bft) 97,87 %
02.01.2022 09:00 10,1 C 10,0 C 7,2 C 96 % 1012,9 hPa 0,0 l/m 0 min 0 min 0 W/m 22,5 km/h (4 Bft) 97,87 %
02.01.2022 09:02 10,2 C 10,0 C 7,2 C 96 % 1012,9 hPa 0,0 l/m 0 min 0 min 0 W/m 16,1 km/h (3 Bft) 95,74 %
02.01.2022 09:04 10,2 C 10,0 C 7,2 C 96 % 1012,8 hPa 0,0 l/m 0 min 0 min 0 W/m 19,3 km/h (3 Bft) 93,48 %
02.01.2022 09:06 10,2 C 10,0 C 7,2 C 96 % 1012,8 hPa 0,0 l/m 0 min 0 min 0 W/m 19,3 km/h (3 Bft) 93,62 %
02.01.2022 09:08 10,2 C 10,0 C 7,2 C 95 % 1012,7 hPa 0,0 l/m 0 min 0 min 0 W/m 19,3 km/h (3 Bft) 95,74 %
02.01.2022 09:10 10,2 C 10,0 C 7,2 C 96 % 1012,6 hPa 0,0 l/m 0 min 0 min 0 W/m 22,5 km/h (4 Bft) 95,74 %
02.01.2022 09:12 10,3 C 10,0 C 7,2 C 95 % 1012,6 hPa 0,0 l/m 0 min 0 min 0 W/m 19,3 km/h (3 Bft) 93,62 %
02.01.2022 09:14 10,3 C 10,0 C 7,2 C 95 % 1012,7 hPa 0,0 l/m 0 min 0 min 0 W/m 22,5 km/h (4 Bft) 95,74 %
02.01.2022 09:16 10,3 C 10,0 C 7,2 C 95 % 1012,7 hPa 0,0 l/m 0 min 0 min 0 W/m 19,3 km/h (3 Bft) 97,83 %
02.01.2022 09:18 10,3 C 10,0 C 7,2 C 95 % 1012,7 hPa 0,0 l/m 0 min 0 min 0 W/m 19,3 km/h (3 Bft) 95,74 %
02.01.2022 09:20 10,3 C 10,0 C 7,2 C 95 % 1012,8 hPa 0,0 l/m 0 min 0 min 0 W/m 16,1 km/h (3 Bft) 95,74 %
02.01.2022 09:22 10,3 C 10,0 C 7,2 C 95 % 1012,6 hPa 0,0 l/m 0 min 2 min 0 W/m 22,5 km/h (4 Bft) 93,62 %
02.01.2022 09:24 10,3 C 10,0 C 7,2 C 95 % 1012,4 hPa 0,0 l/m 0 min 2 min 5 W/m 19,3 km/h (3 Bft) 97,87 %
02.01.2022 09:26 10,3 C 10,0 C 7,2 C 94 % 1012,5 hPa 0,0 l/m 0 min 0 min 7 W/m 19,3 km/h (3 Bft) 95,74 %
02.01.2022 09:28 10,3 C 10,0 C 7,2 C 94 % 1012,6 hPa 0,0 l/m 0 min 0 min 6 W/m 19,3 km/h (3 Bft) 97,83 %
02.01.2022 09:30 10,3 C 10,0 C 7,2 C 95 % 1012,5 hPa 0,0 l/m 0 min 0 min 5 W/m 16,1 km/h (3 Bft) 95,74 %
02.01.2022 09:32 10,3 C 10,0 C 7,2 C 94 % 1012,5 hPa 0,0 l/m 0 min 0 min 5 W/m 19,3 km/h (3 Bft) 97,87 %
02.01.2022 09:34 10,3 C 10,0 C 7,2 C 94 % 1012,6 hPa 0,0 l/m 0 min 0 min 5 W/m 22,5 km/h (4 Bft) 97,87 %
02.01.2022 09:36 10,3 C 10,0 C 7,2 C 94 % 1012,5 hPa 0,0 l/m 0 min 0 min 4 W/m 22,5 km/h (4 Bft) 100,00 %
02.01.2022 09:38 10,4 C 10,0 C 7,2 C 94 % 1012,8 hPa 0,0 l/m 0 min 0 min 4 W/m 22,5 km/h (4 Bft) 100,00 %
02.01.2022 09:40 10,4 C 10,0 C 7,2 C 94 % 1012,7 hPa 0,0 l/m 0 min 0 min 5 W/m 32,2 km/h (5 Bft) 100,00 %
02.01.2022 09:42 10,4 C 10,0 C 7,2 C 94 % 1012,8 hPa 0,0 l/m 0 min 0 min 0 W/m 25,7 km/h (4 Bft) 97,83 %
02.01.2022 09:44 10,4 C 10,0 C 7,2 C 94 % 1012,7 hPa 0,0 l/m 0 min 0 min 0 W/m 22,5 km/h (4 Bft) 100,00 %
02.01.2022 09:46 10,4 C 10,0 C 7,2 C 94 % 1012,8 hPa 0,0 l/m 0 min 0 min 0 W/m 22,5 km/h (4 Bft) 100,00 %
02.01.2022 09:48 10,4 C 10,0 C 7,2 C 94 % 1012,8 hPa 0,0 l/m 0 min 0 min 0 W/m 22,5 km/h (4 Bft) 97,87 %
02.01.2022 09:50 10,4 C 10,0 C 7,2 C 94 % 1012,9 hPa 0,0 l/m 0 min 0 min 0 W/m 22,5 km/h (4 Bft) 100,00 %
02.01.2022 09:52 10,4 C 10,0 C 7,2 C 93 % 1012,9 hPa 0,0 l/m 0 min 0 min 0 W/m 22,5 km/h (4 Bft) 97,87 %
02.01.2022 09:54 10,4 C 10,0 C 7,2 C 93 % 1013,1 hPa 0,0 l/m 0 min 0 min 5 W/m 12,9 km/h (3 Bft) 97,83 %
02.01.2022 09:56 10,4 C 10,0 C 7,2 C 93 % 1012,9 hPa 0,0 l/m 0 min 0 min 5 W/m 16,1 km/h (3 Bft) 100,00 %
02.01.2022 09:58 10,4 C 10,0 C 7,2 C 93 % 1013,0 hPa 0,0 l/m 0 min 0 min 5 W/m 12,9 km/h (3 Bft) 100,00 %
02.01.2022 10:00 10,5 C 10,0 C 7,2 C 93 % 1013,0 hPa 0,0 l/m 0 min 0 min 5 W/m 12,9 km/h (3 Bft) 100,00 %
02.01.2022 10:02 10,5 C 10,0 C 7,2 C 93 % 1012,9 hPa 0,0 l/m 0 min 0 min 5 W/m 16,1 km/h (3 Bft) 100,00 %
02.01.2022 10:04 10,5 C 10,0 C 7,2 C 93 % 1013,0 hPa 0,0 l/m 0 min 0 min 5 W/m 6,4 km/h (2 Bft) 97,83 %
02.01.2022 10:06 10,5 C 10,0 C 7,2 C 93 % 1013,0 hPa 0,0 l/m 0 min 0 min 5 W/m 16,1 km/h (3 Bft) 100,00 %
02.01.2022 10:08 10,5 C 10,0 C 7,2 C 93 % 1012,9 hPa 0,0 l/m 0 min 0 min 7 W/m 16,1 km/h (3 Bft) 100,00 %
02.01.2022 10:10 10,5 C 10,0 C 7,2 C 93 % 1012,9 hPa 0,0 l/m 0 min 0 min 9 W/m 16,1 km/h (3 Bft) 100,00 %
02.01.2022 10:12 10,5 C 10,0 C 7,2 C 93 % 1013,0 hPa 0,0 l/m 0 min 0 min 9 W/m 16,1 km/h (3 Bft) 100,00 %
02.01.2022 10:14 10,6 C 10,0 C 7,2 C 92 % 1013,0 hPa 0,0 l/m 0 min 0 min 10 W/m 12,9 km/h (3 Bft) 97,87 %
02.01.2022 10:16 10,6 C 10,0 C 7,2 C 92 % 1013,0 hPa 0,0 l/m 0 min 0 min 14 W/m 16,1 km/h (3 Bft) 100,00 %
02.01.2022 10:18 10,6 C 10,0 C 7,2 C 92 % 1012,9 hPa 0,0 l/m 0 min 0 min 20 W/m 12,9 km/h (3 Bft) 100,00 %
02.01.2022 10:20 10,6 C 10,0 C 7,2 C 92 % 1012,9 hPa 0,0 l/m 0 min 0 min 22 W/m 12,9 km/h (3 Bft) 100,00 %
02.01.2022 10:22 10,6 C 10,0 C 7,2 C 92 % 1012,9 hPa 0,0 l/m 0 min 0 min 25 W/m 16,1 km/h (3 Bft) 95,74 %
02.01.2022 10:24 10,6 C 10,0 C 7,2 C 92 % 1012,9 hPa 0,0 l/m 0 min 0 min 31 W/m 16,1 km/h (3 Bft) 95,74 %
02.01.2022 10:26 10,6 C 10,6 C 7,2 C 92 % 1013,0 hPa 0,0 l/m 0 min 0 min 35 W/m 9,7 km/h (2 Bft) 97,87 %
02.01.2022 10:28 10,6 C 10,6 C 7,2 C 92 % 1013,0 hPa 0,0 l/m 0 min 0 min 33 W/m 6,4 km/h (2 Bft) 97,83 %
02.01.2022 10:30 10,7 C 10,6 C 7,2 C 92 % 1013,0 hPa 0,0 l/m 0 min 0 min 23 W/m 9,7 km/h (2 Bft) 97,87 %
02.01.2022 10:32 10,7 C 10,6 C 7,2 C 92 % 1013,1 hPa 0,0 l/m 0 min 0 min 17 W/m 12,9 km/h (3 Bft) 97,87 %
02.01.2022 10:34 10,7 C 10,6 C 7,2 C 92 % 1013,2 hPa 0,0 l/m 0 min 0 min 16 W/m 12,9 km/h (3 Bft) 97,87 %
02.01.2022 10:36 10,7 C 10,6 C 7,2 C 91 % 1013,2 hPa 0,0 l/m 0 min 0 min 15 W/m 6,4 km/h (2 Bft) 97,87 %
02.01.2022 10:38 10,8 C 10,6 C 7,2 C 91 % 1013,1 hPa 0,0 l/m 0 min 0 min 16 W/m 6,4 km/h (2 Bft) 97,87 %
02.01.2022 10:40 10,8 C 10,6 C 7,2 C 91 % 1013,1 hPa 0,0 l/m 0 min 0 min 16 W/m 16,1 km/h (3 Bft) 97,83 %
02.01.2022 10:42 10,8 C 10,6 C 7,2 C 91 % 1012,9 hPa 0,0 l/m 0 min 0 min 24 W/m 16,1 km/h (3 Bft) 97,87 %
02.01.2022 10:44 10,8 C 10,6 C 7,2 C 91 % 1012,8 hPa 0,0 l/m 0 min 0 min 32 W/m 16,1 km/h (3 Bft) 97,87 %
02.01.2022 10:46 10,9 C 11,1 C 7,2 C 91 % 1012,9 hPa 0,0 l/m 0 min 0 min 31 W/m 12,9 km/h (3 Bft) 95,74 %
02.01.2022 10:48 11,0 C 11,1 C 7,2 C 90 % 1013,1 hPa 0,0 l/m 0 min 0 min 37 W/m 16,1 km/h (3 Bft) 97,87 %
02.01.2022 10:50 11,1 C 11,1 C 7,2 C 90 % 1013,0 hPa 0,0 l/m 0 min 0 min 47 W/m 12,9 km/h (3 Bft) 97,87 %
02.01.2022 10:52 11,2 C 11,1 C 7,8 C 89 % 1013,1 hPa 0,0 l/m 0 min 0 min 35 W/m 16,1 km/h (3 Bft) 97,83 %
02.01.2022 10:54 11,3 C 11,7 C 7,8 C 89 % 1013,1 hPa 0,0 l/m 0 min 0 min 20 W/m 25,7 km/h (4 Bft) 93,62 %
02.01.2022 10:56 11,4 C 11,7 C 7,8 C 88 % 1013,3 hPa 0,0 l/m 0 min 0 min 20 W/m 16,1 km/h (3 Bft) 97,87 %
02.01.2022 10:58 11,6 C 11,7 C 7,8 C 88 % 1013,3 hPa 0,0 l/m 0 min 0 min 16 W/m 25,7 km/h (4 Bft) 95,74 %
02.01.2022 11:00 11,9 C 12,2 C 7,8 C 86 % 1013,1 hPa 0,0 l/m 0 min 0 min 19 W/m 32,2 km/h (5 Bft) 95,74 %
02.01.2022 11:02 12,3 C 12,2 C 8,3 C 85 % 1013,2 hPa 0,0 l/m 0 min 0 min 35 W/m 25,7 km/h (4 Bft) 95,74 %
02.01.2022 11:04 12,5 C 12,2 C 8,3 C 84 % 1013,1 hPa 0,0 l/m 0 min 0 min 52 W/m 25,7 km/h (4 Bft) 95,65 %
02.01.2022 11:06 12,6 C 12,2 C 8,3 C 84 % 1013,1 hPa 0,0 l/m 0 min 0 min 57 W/m 19,3 km/h (3 Bft) 95,74 %
02.01.2022 11:08 12,7 C 12,2 C 8,3 C 83 % 1013,1 hPa 0,0 l/m 0 min 0 min 50 W/m 25,7 km/h (4 Bft) 100,00 %
02.01.2022 11:10 12,8 C 12,2 C 8,3 C 83 % 1013,2 hPa 0,0 l/m 0 min 0 min 33 W/m 16,1 km/h (3 Bft) 97,87 %
02.01.2022 11:12 12,9 C 12,2 C 8,3 C 83 % 1013,2 hPa 0,0 l/m 0 min 0 min 25 W/m 19,3 km/h (3 Bft) 95,74 %
02.01.2022 11:14 12,9 C 12,2 C 8,3 C 82 % 1013,1 hPa 0,0 l/m 0 min 0 min 30 W/m 22,5 km/h (4 Bft) 97,87 %
02.01.2022 11:16 13,0 C 12,2 C 8,9 C 82 % 1013,1 hPa 0,0 l/m 0 min 0 min 39 W/m 32,2 km/h (5 Bft) 100,00 %
02.01.2022 11:18 13,0 C 12,2 C 9,4 C 82 % 1013,1 hPa 0,0 l/m 0 min 0 min 49 W/m 25,7 km/h (4 Bft) 97,87 %
02.01.2022 11:20 13,1 C 12,2 C 9,4 C 82 % 1013,1 hPa 0,0 l/m 0 min 0 min 54 W/m 25,7 km/h (4 Bft) 97,87 %
02.01.2022 11:22 13,1 C 12,2 C 9,4 C 82 % 1013,1 hPa 0,0 l/m 0 min 0 min 63 W/m 29,0 km/h (5 Bft) 95,92 %
02.01.2022 11:24 13,1 C 12,8 C 9,4 C 82 % 1013,1 hPa 0,0 l/m 0 min 0 min 68 W/m 45,1 km/h (6 Bft) 95,74 %
02.01.2022 11:26 13,1 C 12,8 C 9,4 C 82 % 1013,2 hPa 0,0 l/m 0 min 0 min 74 W/m 29,0 km/h (5 Bft) 95,74 %
02.01.2022 11:28 13,1 C 12,8 C 9,4 C 82 % 1013,2 hPa 0,0 l/m 0 min 0 min 83 W/m 45,1 km/h (6 Bft) 95,74 %
02.01.2022 11:30 13,1 C 12,8 C 9,4 C 82 % 1013,2 hPa 0,0 l/m 0 min 0 min 96 W/m 25,7 km/h (4 Bft) 95,65 %
02.01.2022 11:32 13,1 C 12,8 C 9,4 C 82 % 1013,2 hPa 0,0 l/m 0 min 0 min 91 W/m 35,4 km/h (5 Bft) 51,16 %
02.01.2022 11:34 13,2 C 12,8 C 9,4 C 82 % 1013,2 hPa 0,0 l/m 0 min 0 min 80 W/m 19,3 km/h (3 Bft) 97,87 %
02.01.2022 11:36 13,2 C 12,8 C 9,4 C 82 % 1013,1 hPa 0,0 l/m 0 min 0 min 94 W/m 22,5 km/h (4 Bft) 95,74 %
02.01.2022 11:38 13,2 C 12,8 C 9,4 C 82 % 1013,0 hPa 0,0 l/m 0 min 0 min 122 W/m 25,7 km/h (4 Bft) 97,87 %
02.01.2022 11:40 13,2 C 12,8 C 9,4 C 82 % 1013,0 hPa 0,0 l/m 0 min 0 min 109 W/m 25,7 km/h (4 Bft) 95,65 %
02.01.2022 11:42 13,2 C 12,8 C 9,4 C 82 % 1013,0 hPa 0,0 l/m 0 min 0 min 63 W/m 22,5 km/h (4 Bft) 97,87 %
02.01.2022 11:44 13,1 C 12,8 C 9,4 C 82 % 1013,0 hPa 0,0 l/m 0 min 0 min 59 W/m 19,3 km/h (3 Bft) 97,87 %
02.01.2022 11:46 13,1 C 12,8 C 9,4 C 82 % 1013,0 hPa 0,0 l/m 0 min 0 min 118 W/m 16,1 km/h (3 Bft) 97,87 %
02.01.2022 11:48 13,1 C 12,8 C 9,4 C 82 % 1013,1 hPa 0,0 l/m 0 min 0 min 92 W/m 25,7 km/h (4 Bft) 95,74 %
02.01.2022 11:50 13,2 C 12,8 C 9,4 C 82 % 1013,0 hPa 0,0 l/m 2 min 0 min 160 W/m 25,7 km/h (4 Bft) 95,74 %
02.01.2022 11:52 13,2 C 12,8 C 9,4 C 82 % 1013,0 hPa 0,0 l/m 0 min 0 min 96 W/m 41,8 km/h (6 Bft) 97,83 %
02.01.2022 11:54 13,2 C 12,8 C 9,4 C 83 % 1013,0 hPa 0,0 l/m 0 min 0 min 60 W/m 22,5 km/h (4 Bft) 97,87 %
02.01.2022 11:56 13,3 C 12,8 C 9,4 C 83 % 1013,1 hPa 0,0 l/m 0 min 0 min 78 W/m 19,3 km/h (3 Bft) 95,74 %
02.01.2022 11:58 13,3 C 12,8 C 9,4 C 83 % 1013,0 hPa 0,0 l/m 0 min 0 min 66 W/m 29,0 km/h (5 Bft) 97,87 %
02.01.2022 12:00 13,3 C 12,8 C 9,4 C 83 % 1012,9 hPa 0,0 l/m 0 min 0 min 70 W/m 29,0 km/h (5 Bft) 97,87 %
02.01.2022 12:02 13,3 C 12,8 C 9,4 C 83 % 1013,1 hPa 0,0 l/m 2 min 0 min 208 W/m 16,1 km/h (3 Bft) 97,87 %
02.01.2022 12:04 13,3 C 13,3 C 9,4 C 83 % 1013,1 hPa 0,0 l/m 2 min 0 min 169 W/m 19,3 km/h (3 Bft) 97,87 %
02.01.2022 12:06 13,3 C 12,8 C 9,4 C 82 % 1013,2 hPa 0,0 l/m 0 min 0 min 111 W/m 19,3 km/h (3 Bft) 97,83 %
02.01.2022 12:08 13,3 C 12,8 C 10,0 C 83 % 1013,2 hPa 0,0 l/m 0 min 0 min 113 W/m 22,5 km/h (4 Bft) 97,87 %
02.01.2022 12:10 13,3 C 12,8 C 10,0 C 83 % 1013,1 hPa 0,0 l/m 0 min 0 min 115 W/m 22,5 km/h (4 Bft) 100,00 %
02.01.2022 12:12 13,3 C 12,8 C 10,0 C 83 % 1013,1 hPa 0,0 l/m 0 min 0 min 105 W/m 45,1 km/h (6 Bft) 100,00 %
02.01.2022 12:14 13,3 C 12,8 C 9,4 C 82 % 1013,1 hPa 0,0 l/m 0 min 0 min 94 W/m 45,1 km/h (6 Bft) 100,00 %
02.01.2022 12:16 13,3 C 12,8 C 9,4 C 82 % 1013,1 hPa 0,0 l/m 0 min 0 min 84 W/m 16,1 km/h (3 Bft) 97,83 %
02.01.2022 12:18 13,3 C 12,8 C 9,4 C 83 % 1013,1 hPa 0,0 l/m 0 min 0 min 73 W/m 22,5 km/h (4 Bft) 100,00 %
02.01.2022 12:20 13,3 C 12,8 C 9,4 C 83 % 1013,1 hPa 0,0 l/m 0 min 0 min 73 W/m 22,5 km/h (4 Bft) 100,00 %
02.01.2022 12:22 13,2 C 12,8 C 9,4 C 83 % 1013,1 hPa 0,0 l/m 0 min 0 min 78 W/m 22,5 km/h (4 Bft) 97,87 %
02.01.2022 12:24 13,2 C 12,8 C 9,4 C 83 % 1013,2 hPa 0,0 l/m 0 min 0 min 95 W/m 29,0 km/h (5 Bft) 100,00 %
02.01.2022 12:26 13,2 C 13,3 C 9,4 C 83 % 1013,0 hPa 0,0 l/m 0 min 0 min 134 W/m 22,5 km/h (4 Bft) 95,74 %
02.01.2022 12:28 13,2 C 13,9 C 9,4 C 83 % 1013,1 hPa 0,0 l/m 2 min 0 min 181 W/m 16,1 km/h (3 Bft) 100,00 %
02.01.2022 12:30 13,3 C 13,3 C 9,4 C 83 % 1013,1 hPa 0,0 l/m 0 min 0 min 136 W/m 29,0 km/h (5 Bft) 100,00 %
02.01.2022 12:32 13,3 C 13,3 C 9,4 C 83 % 1013,1 hPa 0,0 l/m 0 min 0 min 127 W/m 19,3 km/h (3 Bft) 100,00 %
02.01.2022 12:34 13,3 C 13,3 C 9,4 C 83 % 1013,0 hPa 0,0 l/m 0 min 0 min 122 W/m 29,0 km/h (5 Bft) 100,00 %
02.01.2022 12:36 13,3 C 12,8 C 9,4 C 83 % 1013,0 hPa 0,0 l/m 0 min 0 min 104 W/m 35,4 km/h (5 Bft) 100,00 %
02.01.2022 12:38 13,3 C 12,8 C 9,4 C 83 % 1013,0 hPa 0,0 l/m 0 min 0 min 80 W/m 29,0 km/h (5 Bft) 100,00 %
02.01.2022 12:40 13,3 C 12,8 C 9,4 C 83 % 1013,0 hPa 0,0 l/m 0 min 0 min 61 W/m 25,7 km/h (4 Bft) 100,00 %
02.01.2022 12:42 13,3 C 12,8 C 9,4 C 83 % 1012,9 hPa 0,0 l/m 0 min 0 min 55 W/m 29,0 km/h (5 Bft) 100,00 %
02.01.2022 12:44 13,2 C 12,8 C 9,4 C 83 % 1012,9 hPa 0,0 l/m 0 min 0 min 54 W/m 19,3 km/h (3 Bft) 100,00 %
02.01.2022 12:46 13,2 C 12,8 C 9,4 C 83 % 1012,9 hPa 0,0 l/m 0 min 0 min 55 W/m 25,7 km/h (4 Bft) 100,00 %
02.01.2022 12:48 13,2 C 12,8 C 9,4 C 83 % 1012,9 hPa 0,0 l/m 0 min 0 min 60 W/m 12,9 km/h (3 Bft) 100,00 %
02.01.2022 12:50 13,2 C 12,8 C 9,4 C 83 % 1012,9 hPa 0,0 l/m 0 min 0 min 53 W/m 16,1 km/h (3 Bft) 97,87 %
02.01.2022 12:52 13,2 C 12,8 C 9,4 C 83 % 1012,9 hPa 0,0 l/m 0 min 0 min 41 W/m 19,3 km/h (3 Bft) 100,00 %
02.01.2022 12:54 13,2 C 12,2 C 9,4 C 83 % 1012,9 hPa 0,0 l/m 0 min 0 min 37 W/m 12,9 km/h (3 Bft) 100,00 %
02.01.2022 12:56 13,1 C 12,2 C 9,4 C 83 % 1013,0 hPa 0,0 l/m 0 min 0 min 34 W/m 19,3 km/h (3 Bft) 100,00 %
02.01.2022 12:58 13,1 C 12,2 C 9,4 C 84 % 1012,9 hPa 0,0 l/m 0 min 0 min 35 W/m 22,5 km/h (4 Bft) 91,49 %
02.01.2022 13:00 13,1 C 12,2 C 9,4 C 84 % 1012,9 hPa 0,0 l/m 0 min 0 min 52 W/m 19,3 km/h (3 Bft) 97,87 %
02.01.2022 13:02 13,1 C 12,2 C 9,4 C 84 % 1012,9 hPa 0,0 l/m 0 min 0 min 57 W/m 22,5 km/h (4 Bft) 100,00 %
02.01.2022 13:04 13,1 C 12,2 C 9,4 C 83 % 1012,8 hPa 0,0 l/m 0 min 0 min 53 W/m 19,3 km/h (3 Bft) 95,65 %
02.01.2022 13:06 13,1 C 12,2 C 9,4 C 83 % 1012,8 hPa 0,0 l/m 0 min 0 min 50 W/m 32,2 km/h (5 Bft) 95,74 %
02.01.2022 13:08 13,1 C 12,2 C 9,4 C 83 % 1012,8 hPa 0,0 l/m 0 min 0 min 52 W/m 25,7 km/h (4 Bft) 93,62 %
02.01.2022 13:10 13,1 C 12,2 C 9,4 C 83 % 1012,8 hPa 0,0 l/m 0 min 0 min 54 W/m 22,5 km/h (4 Bft) 95,74 %
02.01.2022 13:12 13,1 C 12,2 C 9,4 C 84 % 1012,8 hPa 0,0 l/m 0 min 0 min 48 W/m 19,3 km/h (3 Bft) 95,74 %
02.01.2022 13:14 13,1 C 12,2 C 9,4 C 84 % 1012,7 hPa 0,0 l/m 0 min 0 min 48 W/m 12,9 km/h (3 Bft) 93,62 %
02.01.2022 13:16 13,1 C 12,2 C 9,4 C 84 % 1012,7 hPa 0,0 l/m 0 min 0 min 42 W/m 41,8 km/h (6 Bft) 95,74 %
02.01.2022 13:18 13,1 C 12,2 C 8,9 C 84 % 1012,7 hPa 0,0 l/m 0 min 0 min 33 W/m 12,9 km/h (3 Bft) 95,65 %
02.01.2022 13:20 13,1 C 12,2 C 8,9 C 84 % 1012,7 hPa 0,0 l/m 0 min 0 min 34 W/m 16,1 km/h (3 Bft) 95,74 %
02.01.2022 13:22 13,1 C 12,2 C 8,9 C 84 % 1012,7 hPa 0,0 l/m 0 min 0 min 42 W/m 19,3 km/h (3 Bft) 97,87 %
02.01.2022 13:24 13,0 C 12,2 C 8,9 C 84 % 1012,6 hPa 0,0 l/m 0 min 0 min 48 W/m 16,1 km/h (3 Bft) 93,62 %
02.01.2022 13:26 13,0 C 12,2 C 8,9 C 84 % 1012,6 hPa 0,0 l/m 0 min 0 min 44 W/m 32,2 km/h (5 Bft) 95,74 %
02.01.2022 13:28 13,0 C 12,2 C 8,9 C 84 % 1012,7 hPa 0,0 l/m 0 min 0 min 39 W/m 16,1 km/h (3 Bft) 95,65 %
02.01.2022 13:30 13,0 C 12,2 C 8,9 C 84 % 1012,6 hPa 0,0 l/m 0 min 0 min 36 W/m 35,4 km/h (5 Bft) 95,74 %
02.01.2022 13:32 13,0 C 12,2 C 8,9 C 84 % 1012,7 hPa 0,0 l/m 0 min 0 min 33 W/m 19,3 km/h (3 Bft) 95,74 %
02.01.2022 13:34 13,0 C 12,2 C 8,9 C 84 % 1012,7 hPa 0,0 l/m 0 min 0 min 29 W/m 19,3 km/h (3 Bft) 93,62 %
02.01.2022 13:36 13,0 C 12,2 C 8,9 C 84 % 1012,7 hPa 0,0 l/m 0 min 0 min 30 W/m 16,1 km/h (3 Bft) 95,74 %
02.01.2022 13:38 13,0 C 12,2 C 8,9 C 84 % 1012,8 hPa 0,0 l/m 0 min 0 min 27 W/m 35,4 km/h (5 Bft) 95,74 %
02.01.2022 13:40 13,0 C 12,2 C 8,9 C 84 % 1012,8 hPa 0,0 l/m 0 min 0 min 26 W/m 16,1 km/h (3 Bft) 97,83 %
02.01.2022 13:42 13,0 C 12,2 C 8,9 C 84 % 1012,8 hPa 0,0 l/m 0 min 0 min 30 W/m 25,7 km/h (4 Bft) 100,00 %
02.01.2022 13:44 13,0 C 12,2 C 8,9 C 84 % 1012,8 hPa 0,0 l/m 0 min 0 min 24 W/m 22,5 km/h (4 Bft) 97,87 %
02.01.2022 13:46 13,0 C 12,2 C 8,9 C 84 % 1012,7 hPa 0,0 l/m 0 min 0 min 26 W/m 22,5 km/h (4 Bft) 97,87 %
02.01.2022 13:48 13,0 C 12,2 C 8,9 C 84 % 1012,7 hPa 0,0 l/m 0 min 0 min 26 W/m 25,7 km/h (4 Bft) 97,87 %
02.01.2022 13:50 13,0 C 12,2 C 8,9 C 84 % 1012,7 hPa 0,0 l/m 0 min 0 min 25 W/m 16,1 km/h (3 Bft) 97,83 %
02.01.2022 13:52 13,0 C 12,2 C 8,9 C 84 % 1012,7 hPa 0,0 l/m 0 min 0 min 39 W/m 25,7 km/h (4 Bft) 97,87 %
02.01.2022 13:54 13,0 C 12,2 C 8,9 C 84 % 1012,7 hPa 0,0 l/m 0 min 0 min 53 W/m 16,1 km/h (3 Bft) 95,74 %
02.01.2022 13:56 13,0 C 12,2 C 8,9 C 84 % 1012,8 hPa 0,0 l/m 0 min 0 min 56 W/m 19,3 km/h (3 Bft) 100,00 %
02.01.2022 13:58 13,0 C 12,2 C 9,4 C 84 % 1012,7 hPa 0,0 l/m 0 min 0 min 71 W/m 32,2 km/h (5 Bft) 100,00 %
02.01.2022 14:00 13,0 C 12,2 C 9,4 C 84 % 1012,6 hPa 0,0 l/m 0 min 0 min 71 W/m 22,5 km/h (4 Bft) 100,00 %
02.01.2022 14:02 13,1 C 12,8 C 9,4 C 84 % 1012,7 hPa 0,0 l/m 0 min 0 min 76 W/m 25,7 km/h (4 Bft) 100,00 %
02.01.2022 14:04 13,1 C 12,8 C 9,4 C 84 % 1012,6 hPa 0,0 l/m 0 min 0 min 79 W/m 22,5 km/h (4 Bft) 100,00 %
02.01.2022 14:06 13,2 C 13,3 C 9,4 C 85 % 1012,7 hPa 0,0 l/m 0 min 0 min 121 W/m 22,5 km/h (4 Bft) 95,74 %
02.01.2022 14:08 13,3 C 13,9 C 9,4 C 84 % 1012,7 hPa 0,0 l/m 2 min 0 min 313 W/m 22,5 km/h (4 Bft) 97,87 %
02.01.2022 14:10 13,3 C 13,9 C 9,4 C 84 % 1012,6 hPa 0,0 l/m 2 min 0 min 204 W/m 19,3 km/h (3 Bft) 97,87 %
02.01.2022 14:12 13,4 C 13,9 C 9,4 C 84 % 1012,6 hPa 0,0 l/m 2 min 0 min 220 W/m 16,1 km/h (3 Bft) 97,87 %
02.01.2022 14:14 13,5 C 13,9 C 9,4 C 84 % 1012,6 hPa 0,0 l/m 2 min 0 min 296 W/m 16,1 km/h (3 Bft) 97,87 %
02.01.2022 14:16 13,6 C 13,9 C 9,4 C 83 % 1012,6 hPa 0,0 l/m 2 min 0 min 275 W/m 48,3 km/h (6 Bft) 95,65 %
02.01.2022 14:18 13,6 C 13,9 C 10,0 C 83 % 1012,6 hPa 0,0 l/m 2 min 0 min 214 W/m 16,1 km/h (3 Bft) 95,74 %
02.01.2022 14:20 13,7 C 13,3 C 10,0 C 83 % 1012,5 hPa 0,0 l/m 0 min 0 min 117 W/m 16,1 km/h (3 Bft) 95,74 %
02.01.2022 14:22 13,7 C 13,3 C 9,4 C 83 % 1012,5 hPa 0,0 l/m 0 min 0 min 71 W/m 25,7 km/h (4 Bft) 97,87 %
02.01.2022 14:24 13,6 C 12,8 C 9,4 C 83 % 1012,5 hPa 0,0 l/m 0 min 0 min 63 W/m 19,3 km/h (3 Bft) 97,87 %
02.01.2022 14:26 13,6 C 12,8 C 9,4 C 83 % 1012,5 hPa 0,0 l/m 0 min 0 min 60 W/m 35,4 km/h (5 Bft) 97,87 %
02.01.2022 14:28 13,5 C 12,8 C 9,4 C 83 % 1012,5 hPa 0,0 l/m 0 min 0 min 60 W/m 16,1 km/h (3 Bft) 97,83 %
02.01.2022 14:30 13,4 C 12,8 C 9,4 C 83 % 1012,5 hPa 0,0 l/m 0 min 0 min 58 W/m 22,5 km/h (4 Bft) 97,87 %
02.01.2022 14:32 13,4 C 12,8 C 9,4 C 83 % 1012,5 hPa 0,0 l/m 0 min 0 min 51 W/m 22,5 km/h (4 Bft) 95,74 %
02.01.2022 14:34 13,4 C 12,8 C 9,4 C 84 % 1012,6 hPa 0,0 l/m 0 min 0 min 46 W/m 16,1 km/h (3 Bft) 97,87 %
02.01.2022 14:36 13,3 C 12,8 C 9,4 C 84 % 1012,5 hPa 0,0 l/m 0 min 0 min 48 W/m 12,9 km/h (3 Bft) 97,87 %
02.01.2022 14:38 13,3 C 12,8 C 9,4 C 84 % 1012,4 hPa 0,0 l/m 0 min 0 min 48 W/m 22,5 km/h (4 Bft) 97,87 %
02.01.2022 14:40 13,2 C 12,8 C 9,4 C 84 % 1012,5 hPa 0,0 l/m 0 min 0 min 53 W/m 19,3 km/h (3 Bft) 95,65 %
02.01.2022 14:42 13,2 C 12,8 C 9,4 C 84 % 1012,5 hPa 0,0 l/m 0 min 0 min 52 W/m 16,1 km/h (3 Bft) 95,74 %
02.01.2022 14:44 13,2 C 12,8 C 9,4 C 84 % 1012,5 hPa 0,0 l/m 0 min 0 min 54 W/m 19,3 km/h (3 Bft) 95,74 %
02.01.2022 14:46 13,2 C 12,8 C 9,4 C 84 % 1012,6 hPa 0,0 l/m 0 min 0 min 56 W/m 22,5 km/h (4 Bft) 97,87 %
02.01.2022 14:48 13,2 C 12,8 C 9,4 C 84 % 1012,6 hPa 0,0 l/m 0 min 0 min 57 W/m 16,1 km/h (3 Bft) 100,00 %
02.01.2022 14:50 13,2 C 12,8 C 9,4 C 84 % 1012,6 hPa 0,0 l/m 0 min 0 min 54 W/m 16,1 km/h (3 Bft) 97,83 %
02.01.2022 14:52 13,2 C 12,8 C 9,4 C 85 % 1012,6 hPa 0,0 l/m 0 min 0 min 57 W/m 16,1 km/h (3 Bft) 100,00 %
02.01.2022 14:54 13,2 C 12,8 C 9,4 C 85 % 1012,6 hPa 0,0 l/m 0 min 0 min 55 W/m 16,1 km/h (3 Bft) 100,00 %
02.01.2022 14:56 13,2 C 12,8 C 9,4 C 85 % 1012,6 hPa 0,0 l/m 0 min 0 min 44 W/m 22,5 km/h (4 Bft) 100,00 %
02.01.2022 14:58 13,2 C 12,8 C 9,4 C 85 % 1012,6 hPa 0,0 l/m 0 min 0 min 53 W/m 19,3 km/h (3 Bft) 95,74 %
02.01.2022 15:00 13,2 C 12,8 C 9,4 C 85 % 1012,7 hPa 0,0 l/m 0 min 0 min 55 W/m 29,0 km/h (5 Bft) 97,87 %
02.01.2022 15:02 13,2 C 12,8 C 9,4 C 85 % 1012,7 hPa 0,0 l/m 0 min 0 min 47 W/m 25,7 km/h (4 Bft) 100,00 %
02.01.2022 15:04 13,1 C 12,2 C 9,4 C 85 % 1012,8 hPa 0,0 l/m 0 min 0 min 38 W/m 25,7 km/h (4 Bft) 97,87 %
02.01.2022 15:06 13,1 C 12,2 C 9,4 C 85 % 1012,7 hPa 0,0 l/m 0 min 0 min 34 W/m 19,3 km/h (3 Bft) 100,00 %
02.01.2022 15:08 13,1 C 12,2 C 8,9 C 85 % 1012,7 hPa 0,0 l/m 0 min 0 min 34 W/m 25,7 km/h (4 Bft) 100,00 %
02.01.2022 15:10 13,1 C 12,2 C 8,9 C 85 % 1012,7 hPa 0,0 l/m 0 min 0 min 32 W/m 22,5 km/h (4 Bft) 97,87 %
02.01.2022 15:12 13,1 C 12,2 C 8,9 C 85 % 1012,7 hPa 0,0 l/m 0 min 0 min 34 W/m 22,5 km/h (4 Bft) 100,00 %
02.01.2022 15:14 13,1 C 12,2 C 8,9 C 85 % 1012,7 hPa 0,0 l/m 0 min 0 min 44 W/m 25,7 km/h (4 Bft) 95,74 %
02.01.2022 15:16 13,1 C 12,2 C 8,9 C 85 % 1012,8 hPa 0,0 l/m 0 min 0 min 46 W/m 16,1 km/h (3 Bft) 97,83 %
02.01.2022 15:18 13,1 C 12,2 C 8,9 C 85 % 1012,7 hPa 0,0 l/m 0 min 0 min 59 W/m 29,0 km/h (5 Bft) 97,87 %
02.01.2022 15:20 13,1 C 12,8 C 8,9 C 85 % 1012,7 hPa 0,0 l/m 0 min 0 min 66 W/m 29,0 km/h (5 Bft) 95,74 %
02.01.2022 15:22 13,1 C 12,8 C 8,9 C 85 % 1012,7 hPa 0,0 l/m 0 min 0 min 62 W/m 25,7 km/h (4 Bft) 97,87 %
02.01.2022 15:24 13,1 C 12,8 C 8,9 C 85 % 1012,8 hPa 0,0 l/m 0 min 0 min 59 W/m 25,7 km/h (4 Bft) 97,87 %
02.01.2022 15:26 13,1 C 12,8 C 8,9 C 85 % 1012,8 hPa 0,0 l/m 2 min 0 min 72 W/m 19,3 km/h (3 Bft) 97,83 %
02.01.2022 15:28 13,1 C 12,8 C 8,9 C 85 % 1012,8 hPa 0,0 l/m 2 min 0 min 70 W/m 22,5 km/h (4 Bft) 97,87 %
02.01.2022 15:30 13,1 C 12,2 C 8,9 C 85 % 1012,9 hPa 0,0 l/m 0 min 0 min 54 W/m 16,1 km/h (3 Bft) 97,87 %
02.01.2022 15:32 13,0 C 12,2 C 8,9 C 86 % 1012,8 hPa 0,0 l/m 0 min 0 min 50 W/m 22,5 km/h (4 Bft) 97,87 %
02.01.2022 15:34 13,0 C 12,2 C 8,9 C 86 % 1012,7 hPa 0,0 l/m 0 min 0 min 42 W/m 22,5 km/h (4 Bft) 95,74 %
02.01.2022 15:36 12,9 C 12,2 C 8,9 C 86 % 1012,8 hPa 0,0 l/m 0 min 0 min 37 W/m 16,1 km/h (3 Bft) 97,87 %
02.01.2022 15:38 12,9 C 12,2 C 8,9 C 86 % 1012,8 hPa 0,0 l/m 0 min 0 min 36 W/m 16,1 km/h (3 Bft) 97,83 %
02.01.2022 15:40 12,9 C 12,2 C 8,9 C 86 % 1012,9 hPa 0,0 l/m 0 min 0 min 31 W/m 12,9 km/h (3 Bft) 97,87 %
02.01.2022 15:42 12,8 C 12,2 C 8,9 C 86 % 1012,8 hPa 0,0 l/m 0 min 0 min 31 W/m 16,1 km/h (3 Bft) 97,87 %
02.01.2022 15:44 12,8 C 12,2 C 8,9 C 86 % 1012,9 hPa 0,0 l/m 0 min 0 min 37 W/m 16,1 km/h (3 Bft) 95,74 %
02.01.2022 15:46 12,8 C 12,2 C 8,9 C 86 % 1013,0 hPa 0,0 l/m 0 min 0 min 43 W/m 16,1 km/h (3 Bft) 95,74 %
02.01.2022 15:48 12,8 C 12,2 C 8,9 C 86 % 1013,0 hPa 0,0 l/m 0 min 0 min 38 W/m 16,1 km/h (3 Bft) 100,00 %
02.01.2022 15:50 12,8 C 12,2 C 8,9 C 86 % 1012,9 hPa 0,0 l/m 0 min 0 min 33 W/m 29,0 km/h (5 Bft) 100,00 %
02.01.2022 15:52 12,8 C 12,2 C 8,9 C 86 % 1013,0 hPa 0,0 l/m 0 min 0 min 32 W/m 25,7 km/h (4 Bft) 100,00 %
02.01.2022 15:54 12,8 C 12,2 C 8,9 C 86 % 1012,9 hPa 0,0 l/m 0 min 0 min 34 W/m 16,1 km/h (3 Bft) 97,87 %
02.01.2022 15:56 12,8 C 12,2 C 8,9 C 86 % 1013,0 hPa 0,0 l/m 0 min 0 min 30 W/m 12,9 km/h (3 Bft) 100,00 %
02.01.2022 15:58 12,8 C 12,2 C 8,9 C 86 % 1013,0 hPa 0,0 l/m 0 min 0 min 32 W/m 19,3 km/h (3 Bft) 97,87 %
02.01.2022 16:00 12,8 C 12,2 C 8,9 C 86 % 1013,0 hPa 0,0 l/m 2 min 0 min 39 W/m 12,9 km/h (3 Bft) 97,87 %
02.01.2022 16:02 12,8 C 12,2 C 8,9 C 86 % 1012,9 hPa 0,0 l/m 0 min 0 min 30 W/m 19,3 km/h (3 Bft) 97,83 %
02.01.2022 16:04 12,8 C 12,2 C 8,9 C 86 % 1012,9 hPa 0,0 l/m 0 min 0 min 25 W/m 16,1 km/h (3 Bft) 97,87 %
02.01.2022 16:06 12,8 C 12,2 C 8,9 C 86 % 1013,0 hPa 0,0 l/m 0 min 0 min 19 W/m 22,5 km/h (4 Bft) 97,87 %
02.01.2022 16:08 12,7 C 12,2 C 8,9 C 86 % 1013,0 hPa 0,0 l/m 0 min 0 min 18 W/m 12,9 km/h (3 Bft) 97,87 %
02.01.2022 16:10 12,7 C 11,7 C 8,9 C 86 % 1013,0 hPa 0,0 l/m 0 min 0 min 14 W/m 16,1 km/h (3 Bft) 97,87 %
02.01.2022 16:12 12,7 C 11,7 C 8,9 C 86 % 1013,0 hPa 0,0 l/m 0 min 0 min 11 W/m 32,2 km/h (5 Bft) 97,87 %
02.01.2022 16:14 12,7 C 11,7 C 8,9 C 86 % 1013,0 hPa 0,0 l/m 0 min 0 min 9 W/m 16,1 km/h (3 Bft) 97,83 %
02.01.2022 16:16 12,7 C 11,7 C 8,9 C 86 % 1013,0 hPa 0,0 l/m 0 min 0 min 8 W/m 19,3 km/h (3 Bft) 97,87 %
02.01.2022 16:18 12,7 C 11,7 C 8,9 C 86 % 1013,0 hPa 0,0 l/m 0 min 0 min 9 W/m 25,7 km/h (4 Bft) 97,87 %
02.01.2022 16:20 12,7 C 11,7 C 8,9 C 86 % 1012,9 hPa 0,0 l/m 0 min 0 min 8 W/m 22,5 km/h (4 Bft) 97,87 %
02.01.2022 16:22 12,7 C 11,7 C 8,9 C 86 % 1013,0 hPa 0,0 l/m 0 min 0 min 7 W/m 19,3 km/h (3 Bft) 97,87 %
02.01.2022 16:24 12,7 C 12,2 C 8,9 C 86 % 1013,0 hPa 0,0 l/m 0 min 0 min 7 W/m 19,3 km/h (3 Bft) 95,74 %
02.01.2022 16:26 12,7 C 11,7 C 8,9 C 86 % 1013,0 hPa 0,0 l/m 0 min 0 min 5 W/m 16,1 km/h (3 Bft) 97,83 %
02.01.2022 16:28 12,7 C 11,7 C 8,9 C 86 % 1012,9 hPa 0,0 l/m 0 min 0 min 5 W/m 19,3 km/h (3 Bft) 97,87 %
02.01.2022 16:30 12,7 C 11,7 C 8,9 C 86 % 1012,9 hPa 0,0 l/m 0 min 0 min 5 W/m 19,3 km/h (3 Bft) 95,74 %
02.01.2022 16:32 12,7 C 11,7 C 8,9 C 86 % 1012,9 hPa 0,0 l/m 0 min 0 min 0 W/m 22,5 km/h (4 Bft) 97,87 %
02.01.2022 16:34 12,7 C 11,7 C 8,9 C 86 % 1012,9 hPa 0,0 l/m 0 min 0 min 0 W/m 29,0 km/h (5 Bft) 95,74 %
02.01.2022 16:36 12,7 C 11,7 C 8,9 C 86 % 1012,9 hPa 0,0 l/m 0 min 0 min 0 W/m 25,7 km/h (4 Bft) 95,74 %
02.01.2022 16:38 12,7 C 11,7 C 8,9 C 86 % 1012,9 hPa 0,0 l/m 0 min 0 min 0 W/m 16,1 km/h (3 Bft) 97,83 %
02.01.2022 16:40 12,7 C 11,7 C 8,9 C 86 % 1012,9 hPa 0,0 l/m 0 min 0 min 0 W/m 19,3 km/h (3 Bft) 97,87 %
02.01.2022 16:42 12,7 C 11,7 C 8,9 C 86 % 1012,8 hPa 0,0 l/m 0 min 0 min 0 W/m 25,7 km/h (4 Bft) 97,87 %
02.01.2022 16:44 12,7 C 11,7 C 8,9 C 86 % 1012,9 hPa 0,0 l/m 0 min 0 min 0 W/m 19,3 km/h (3 Bft) 97,87 %
02.01.2022 16:46 12,7 C 11,7 C 8,9 C 85 % 1012,9 hPa 0,0 l/m 0 min 0 min 0 W/m 16,1 km/h (3 Bft) 97,87 %
02.01.2022 16:48 12,7 C 11,7 C 8,3 C 85 % 1012,9 hPa 0,0 l/m 0 min 0 min 0 W/m 19,3 km/h (3 Bft) 97,87 %
02.01.2022 16:50 12,6 C 11,7 C 8,3 C 85 % 1012,9 hPa 0,0 l/m 0 min 0 min 0 W/m 25,7 km/h (4 Bft) 97,83 %
02.01.2022 16:52 12,6 C 11,7 C 8,3 C 85 % 1013,0 hPa 0,0 l/m 0 min 0 min 0 W/m 16,1 km/h (3 Bft) 95,74 %
02.01.2022 16:54 12,6 C 11,7 C 8,3 C 85 % 1012,9 hPa 0,0 l/m 0 min 0 min 0 W/m 22,5 km/h (4 Bft) 97,87 %
02.01.2022 16:56 12,6 C 11,7 C 8,3 C 85 % 1012,9 hPa 0,0 l/m 0 min 0 min 0 W/m 25,7 km/h (4 Bft) 97,87 %
02.01.2022 16:58 12,6 C 11,7 C 8,3 C 85 % 1013,0 hPa 0,0 l/m 0 min 0 min 0 W/m 22,5 km/h (4 Bft) 97,87 %
02.01.2022 17:00 12,5 C 11,7 C 8,3 C 85 % 1013,0 hPa 0,0 l/m 0 min 0 min 0 W/m 16,1 km/h (3 Bft) 95,65 %
02.01.2022 17:02 12,5 C 11,7 C 8,3 C 85 % 1012,9 hPa 0,0 l/m 0 min 0 min 0 W/m 16,1 km/h (3 Bft) 95,74 %
02.01.2022 17:04 12,5 C 11,7 C 8,3 C 85 % 1012,9 hPa 0,0 l/m 0 min 0 min 0 W/m 19,3 km/h (3 Bft) 97,87 %
02.01.2022 17:06 12,5 C 11,7 C 8,3 C 85 % 1012,9 hPa 0,0 l/m 0 min 0 min 0 W/m 16,1 km/h (3 Bft) 95,74 %
02.01.2022 17:08 12,5 C 11,7 C 8,3 C 85 % 1012,9 hPa 0,0 l/m 0 min 0 min 0 W/m 22,5 km/h (4 Bft) 95,74 %
02.01.2022 17:10 12,4 C 11,7 C 8,3 C 85 % 1012,9 hPa 0,0 l/m 0 min 0 min 0 W/m 12,9 km/h (3 Bft) 97,87 %
02.01.2022 17:12 12,4 C 11,7 C 8,3 C 86 % 1012,8 hPa 0,0 l/m 0 min 0 min 0 W/m 19,3 km/h (3 Bft) 95,74 %
02.01.2022 17:14 12,4 C 11,7 C 8,3 C 86 % 1012,8 hPa 0,0 l/m 0 min 0 min 0 W/m 12,9 km/h (3 Bft) 97,83 %
02.01.2022 17:16 12,4 C 11,7 C 8,3 C 86 % 1012,8 hPa 0,0 l/m 0 min 0 min 0 W/m 19,3 km/h (3 Bft) 95,74 %
02.01.2022 17:18 12,4 C 11,1 C 8,3 C 86 % 1012,7 hPa 0,0 l/m 0 min 0 min 0 W/m 16,1 km/h (3 Bft) 95,74 %
02.01.2022 17:20 12,3 C 11,1 C 8,3 C 86 % 1012,8 hPa 0,0 l/m 0 min 0 min 0 W/m 12,9 km/h (3 Bft) 95,74 %
02.01.2022 17:22 12,3 C 11,1 C 8,3 C 86 % 1012,7 hPa 0,0 l/m 0 min 0 min 0 W/m 16,1 km/h (3 Bft) 95,74 %
02.01.2022 17:24 12,3 C 11,1 C 7,8 C 86 % 1012,7 hPa 0,0 l/m 0 min 0 min 0 W/m 16,1 km/h (3 Bft) 95,65 %
02.01.2022 17:26 12,3 C 11,1 C 7,8 C 86 % 1012,7 hPa 0,0 l/m 0 min 0 min 0 W/m 16,1 km/h (3 Bft) 93,62 %
02.01.2022 17:28 12,2 C 11,1 C 7,8 C 86 % 1012,7 hPa 0,0 l/m 0 min 0 min 0 W/m 19,3 km/h (3 Bft) 95,74 %
02.01.2022 17:30 12,2 C 11,1 C 8,3 C 87 % 1012,7 hPa 0,0 l/m 0 min 0 min 0 W/m 22,5 km/h (4 Bft) 93,62 %
02.01.2022 17:32 12,2 C 11,1 C 8,3 C 87 % 1012,6 hPa 0,0 l/m 0 min 0 min 0 W/m 19,3 km/h (3 Bft) 97,87 %
02.01.2022 17:34 12,2 C 11,1 C 7,8 C 87 % 1012,7 hPa 0,0 l/m 0 min 0 min 0 W/m 12,9 km/h (3 Bft) 97,87 %
02.01.2022 17:36 12,2 C 11,1 C 8,3 C 87 % 1012,7 hPa 0,0 l/m 0 min 0 min 0 W/m 22,5 km/h (4 Bft) 97,83 %
02.01.2022 17:38 12,2 C 11,1 C 8,3 C 87 % 1012,7 hPa 0,0 l/m 0 min 0 min 0 W/m 22,5 km/h (4 Bft) 97,87 %
02.01.2022 17:40 12,2 C 11,1 C 8,3 C 87 % 1012,7 hPa 0,0 l/m 0 min 0 min 0 W/m 25,7 km/h (4 Bft) 96,30 %
02.01.2022 17:42 12,2 C 11,1 C 8,3 C 87 % 1012,7 hPa 0,0 l/m 0 min 0 min 0 W/m 19,3 km/h (3 Bft) 97,87 %
02.01.2022 17:44 12,2 C 11,1 C 8,3 C 87 % 1012,7 hPa 0,0 l/m 0 min 0 min 0 W/m 16,1 km/h (3 Bft) 97,83 %
02.01.2022 17:46 12,2 C 11,1 C 7,8 C 87 % 1012,7 hPa 0,0 l/m 0 min 0 min 0 W/m 25,7 km/h (4 Bft) 97,87 %
02.01.2022 17:48 12,2 C 11,1 C 7,8 C 88 % 1012,7 hPa 0,0 l/m 0 min 0 min 0 W/m 16,1 km/h (3 Bft) 97,87 %
02.01.2022 17:50 12,2 C 11,1 C 7,8 C 88 % 1012,7 hPa 0,0 l/m 0 min 0 min 0 W/m 12,9 km/h (3 Bft) 97,87 %
02.01.2022 17:52 12,1 C 11,1 C 7,8 C 88 % 1012,6 hPa 0,0 l/m 0 min 0 min 0 W/m 12,9 km/h (3 Bft) 100,00 %
02.01.2022 17:54 12,1 C 11,1 C 7,8 C 88 % 1012,6 hPa 0,0 l/m 0 min 0 min 0 W/m 16,1 km/h (3 Bft) 100,00 %
02.01.2022 17:56 12,1 C 11,1 C 8,3 C 88 % 1012,5 hPa 0,0 l/m 0 min 0 min 0 W/m 16,1 km/h (3 Bft) 100,00 %
02.01.2022 17:58 12,2 C 11,7 C 8,3 C 88 % 1012,5 hPa 0,0 l/m 0 min 0 min 0 W/m 16,1 km/h (3 Bft) 100,00 %
02.01.2022 18:00 12,2 C 11,7 C 8,3 C 88 % 1012,5 hPa 0,0 l/m 0 min 0 min 0 W/m 19,3 km/h (3 Bft) 100,00 %
02.01.2022 18:02 12,2 C 11,7 C 8,3 C 88 % 1012,5 hPa 0,0 l/m 0 min 0 min 0 W/m 25,7 km/h (4 Bft) 100,00 %
02.01.2022 18:04 12,2 C 11,7 C 8,3 C 89 % 1012,6 hPa 0,0 l/m 0 min 0 min 0 W/m 25,7 km/h (4 Bft) 100,00 %
02.01.2022 18:06 12,2 C 11,7 C 8,3 C 88 % 1012,7 hPa 0,0 l/m 0 min 2 min 0 W/m 19,3 km/h (3 Bft) 97,96 %
02.01.2022 18:08 12,2 C 11,1 C 7,8 C 89 % 1012,6 hPa 0,2 l/m 0 min 2 min 0 W/m 35,4 km/h (5 Bft) 100,00 %
02.01.2022 18:10 12,2 C 11,1 C 7,2 C 89 % 1012,6 hPa 0,0 l/m 0 min 2 min 0 W/m 16,1 km/h (3 Bft) 100,00 %
02.01.2022 18:12 12,2 C 10,6 C 7,2 C 89 % 1012,7 hPa 0,0 l/m 0 min 2 min 0 W/m 29,0 km/h (5 Bft) 97,83 %
02.01.2022 18:14 12,1 C 10,6 C 7,2 C 90 % 1012,7 hPa 0,2 l/m 0 min 2 min 0 W/m 19,3 km/h (3 Bft) 97,87 %
02.01.2022 18:16 12,0 C 10,0 C 7,2 C 91 % 1012,7 hPa 0,0 l/m 0 min 2 min 0 W/m 12,9 km/h (3 Bft) 100,00 %
02.01.2022 18:18 11,9 C 10,0 C 7,2 C 91 % 1012,6 hPa 0,2 l/m 0 min 2 min 0 W/m 19,3 km/h (3 Bft) 100,00 %
02.01.2022 18:20 11,8 C 10,0 C 7,2 C 92 % 1012,7 hPa 0,0 l/m 0 min 2 min 0 W/m 12,9 km/h (3 Bft) 100,00 %
02.01.2022 18:22 11,7 C 10,0 C 7,2 C 92 % 1012,6 hPa 0,0 l/m 0 min 2 min 0 W/m 16,1 km/h (3 Bft) 95,74 %
02.01.2022 18:24 11,7 C 10,0 C 7,2 C 92 % 1012,6 hPa 0,0 l/m 0 min 0 min 0 W/m 12,9 km/h (3 Bft) 97,83 %
02.01.2022 18:26 11,7 C 10,0 C 7,2 C 92 % 1012,6 hPa 0,0 l/m 0 min 0 min 0 W/m 19,3 km/h (3 Bft) 100,00 %
02.01.2022 18:28 11,6 C 10,0 C 7,2 C 93 % 1012,6 hPa 0,0 l/m 0 min 0 min 0 W/m 16,1 km/h (3 Bft) 95,74 %
02.01.2022 18:30 11,6 C 10,0 C 7,2 C 93 % 1012,6 hPa 0,0 l/m 0 min 0 min 0 W/m 16,1 km/h (3 Bft) 100,00 %
02.01.2022 18:32 11,5 C 10,0 C 7,2 C 93 % 1012,6 hPa 0,0 l/m 0 min 0 min 0 W/m 16,1 km/h (3 Bft) 93,62 %
02.01.2022 18:34 11,4 C 10,0 C 7,2 C 93 % 1012,7 hPa 0,0 l/m 0 min 0 min 0 W/m 19,3 km/h (3 Bft) 100,00 %
02.01.2022 18:36 11,4 C 10,0 C 7,2 C 94 % 1012,7 hPa 0,0 l/m 0 min 0 min 0 W/m 9,7 km/h (2 Bft) 95,65 %
02.01.2022 18:38 11,4 C 10,0 C 7,2 C 94 % 1012,6 hPa 0,0 l/m 0 min 0 min 0 W/m 6,4 km/h (2 Bft) 95,74 %
02.01.2022 18:40 11,4 C 10,0 C 7,2 C 94 % 1012,6 hPa 0,0 l/m 0 min 0 min 0 W/m 16,1 km/h (3 Bft) 95,74 %
02.01.2022 18:42 11,3 C 10,0 C 7,2 C 94 % 1012,5 hPa 0,2 l/m 0 min 2 min 0 W/m 16,1 km/h (3 Bft) 97,87 %
02.01.2022 18:44 11,3 C 10,0 C 7,2 C 94 % 1012,5 hPa 0,0 l/m 0 min 2 min 0 W/m 9,7 km/h (2 Bft) 97,87 %
02.01.2022 18:46 11,3 C 10,0 C 7,2 C 94 % 1012,5 hPa 0,0 l/m 0 min 2 min 0 W/m 12,9 km/h (3 Bft) 95,65 %
02.01.2022 18:48 11,3 C 10,0 C 7,2 C 94 % 1012,4 hPa 0,4 l/m 0 min 2 min 0 W/m 16,1 km/h (3 Bft) 97,87 %
02.01.2022 18:50 11,3 C 10,0 C 7,2 C 94 % 1012,3 hPa 0,4 l/m 0 min 2 min 0 W/m 19,3 km/h (3 Bft) 97,87 %
02.01.2022 18:52 11,2 C 10,0 C 7,2 C 94 % 1012,3 hPa 0,0 l/m 0 min 2 min 0 W/m 22,5 km/h (4 Bft) 97,87 %
02.01.2022 18:54 11,2 C 9,4 C 7,2 C 95 % 1012,2 hPa 0,6 l/m 0 min 2 min 0 W/m 19,3 km/h (3 Bft) 97,87 %
02.01.2022 18:56 11,2 C 9,4 C 7,2 C 95 % 1012,2 hPa 0,2 l/m 0 min 2 min 0 W/m 29,0 km/h (5 Bft) 97,87 %
02.01.2022 18:58 11,2 C 9,4 C 7,2 C 95 % 1012,1 hPa 0,2 l/m 0 min 2 min 0 W/m 12,9 km/h (3 Bft) 97,83 %
02.01.2022 19:00 11,2 C 9,4 C 7,2 C 95 % 1012,2 hPa 0,2 l/m 0 min 2 min 0 W/m 6,4 km/h (2 Bft) 97,87 %
02.01.2022 19:02 11,1 C 9,4 C 7,2 C 95 % 1012,0 hPa 0,2 l/m 0 min 2 min 0 W/m 6,4 km/h (2 Bft) 97,87 %
02.01.2022 19:04 11,1 C 9,4 C 7,2 C 95 % 1012,3 hPa 0,2 l/m 0 min 2 min 0 W/m 6,4 km/h (2 Bft) 93,62 %
02.01.2022 19:06 11,1 C 9,4 C 7,2 C 95 % 1012,3 hPa 0,0 l/m 0 min 2 min 0 W/m 12,9 km/h (3 Bft) 97,87 %
02.01.2022 19:08 11,1 C 9,4 C 7,2 C 95 % 1012,2 hPa 0,0 l/m 0 min 2 min 0 W/m 12,9 km/h (3 Bft) 97,87 %
02.01.2022 19:10 11,1 C 9,4 C 7,2 C 95 % 1012,2 hPa 0,0 l/m 0 min 2 min 0 W/m 12,9 km/h (3 Bft) 100,00 %
02.01.2022 19:12 11,1 C 9,4 C 7,2 C 96 % 1012,2 hPa 0,0 l/m 0 min 2 min 0 W/m 22,5 km/h (4 Bft) 93,62 %
02.01.2022 19:14 11,0 C 9,4 C 7,2 C 96 % 1012,3 hPa 0,0 l/m 0 min 2 min 0 W/m 25,7 km/h (4 Bft) 95,74 %
02.01.2022 19:16 11,0 C 9,4 C 7,2 C 96 % 1012,3 hPa 0,2 l/m 0 min 2 min 0 W/m 25,7 km/h (4 Bft) 95,74 %
02.01.2022 19:18 11,0 C 9,4 C 7,2 C 96 % 1012,4 hPa 0,2 l/m 0 min 2 min 0 W/m 16,1 km/h (3 Bft) 95,74 %
02.01.2022 19:20 11,0 C 9,4 C 7,2 C 96 % 1012,4 hPa 0,2 l/m 0 min 2 min 0 W/m 16,1 km/h (3 Bft) 97,87 %
02.01.2022 19:22 10,9 C 9,4 C 7,2 C 96 % 1012,3 hPa 0,2 l/m 0 min 2 min 0 W/m 19,3 km/h (3 Bft) 95,65 %
02.01.2022 19:24 10,9 C 9,4 C 7,2 C 96 % 1012,3 hPa 0,2 l/m 0 min 2 min 0 W/m 25,7 km/h (4 Bft) 95,74 %
02.01.2022 19:26 10,9 C 9,4 C 7,2 C 96 % 1012,3 hPa 0,2 l/m 0 min 2 min 0 W/m 12,9 km/h (3 Bft) 95,74 %
02.01.2022 19:28 10,9 C 9,4 C 7,2 C 96 % 1012,3 hPa 0,2 l/m 0 min 2 min 0 W/m 12,9 km/h (3 Bft) 93,62 %
02.01.2022 19:30 10,9 C 9,4 C 7,2 C 96 % 1012,4 hPa 0,4 l/m 0 min 2 min 0 W/m 12,9 km/h (3 Bft) 93,62 %
02.01.2022 19:32 10,9 C 9,4 C 7,2 C 96 % 1012,4 hPa 0,2 l/m 0 min 2 min 0 W/m 22,5 km/h (4 Bft) 95,74 %
02.01.2022 19:34 10,9 C 9,4 C 7,2 C 96 % 1012,4 hPa 0,2 l/m 0 min 2 min 0 W/m 12,9 km/h (3 Bft) 95,65 %
02.01.2022 19:36 10,9 C 9,4 C 7,2 C 96 % 1012,4 hPa 0,2 l/m 0 min 2 min 0 W/m 6,4 km/h (2 Bft) 100,00 %
02.01.2022 19:38 10,9 C 9,4 C 7,2 C 97 % 1012,3 hPa 0,2 l/m 0 min 2 min 0 W/m 6,4 km/h (2 Bft) 95,74 %
02.01.2022 19:40 10,9 C 9,4 C 7,2 C 97 % 1012,3 hPa 0,2 l/m 0 min 2 min 0 W/m 6,4 km/h (2 Bft) 95,74 %
02.01.2022 19:42 10,9 C 9,4 C 7,2 C 97 % 1012,2 hPa 0,0 l/m 0 min 2 min 0 W/m 3,2 km/h (1 Bft) 95,74 %
02.01.2022 19:44 10,8 C 9,4 C 7,2 C 97 % 1012,1 hPa 0,2 l/m 0 min 2 min 0 W/m 9,7 km/h (2 Bft) 93,62 %
02.01.2022 19:46 10,8 C 9,4 C 7,2 C 97 % 1012,0 hPa 0,0 l/m 0 min 2 min 0 W/m 9,7 km/h (2 Bft) 97,83 %
02.01.2022 19:48 10,8 C 9,4 C 7,2 C 97 % 1012,0 hPa 0,0 l/m 0 min 2 min 0 W/m 12,9 km/h (3 Bft) 100,00 %
02.01.2022 19:50 10,8 C 9,4 C 7,2 C 97 % 1012,0 hPa 0,2 l/m 0 min 2 min 0 W/m 6,4 km/h (2 Bft) 97,87 %
02.01.2022 19:52 10,8 C 9,4 C 7,2 C 97 % 1011,9 hPa 0,0 l/m 0 min 2 min 0 W/m 6,4 km/h (2 Bft) 97,87 %
02.01.2022 19:54 10,8 C 9,4 C 7,2 C 97 % 1011,9 hPa 0,0 l/m 0 min 2 min 0 W/m 9,7 km/h (2 Bft) 97,87 %
02.01.2022 19:56 10,8 C 9,4 C 7,2 C 97 % 1011,9 hPa 0,2 l/m 0 min 2 min 0 W/m 16,1 km/h (3 Bft) 100,00 %
02.01.2022 19:58 10,8 C 9,4 C 7,2 C 97 % 1011,7 hPa 0,0 l/m 0 min 2 min 0 W/m 12,9 km/h (3 Bft) 97,83 %
02.01.2022 20:00 10,8 C 9,4 C 7,2 C 97 % 1011,5 hPa 0,0 l/m 0 min 2 min 0 W/m 9,7 km/h (2 Bft) 97,87 %
02.01.2022 20:02 10,7 C 9,4 C 7,2 C 97 % 1011,5 hPa 0,0 l/m 0 min 2 min 0 W/m 12,9 km/h (3 Bft) 95,74 %
02.01.2022 20:04 10,7 C 9,4 C 7,2 C 97 % 1011,5 hPa 0,2 l/m 0 min 2 min 0 W/m 16,1 km/h (3 Bft) 97,87 %
02.01.2022 20:06 10,7 C 9,4 C 7,2 C 97 % 1011,5 hPa 0,0 l/m 0 min 2 min 0 W/m 19,3 km/h (3 Bft) 97,87 %
02.01.2022 20:08 10,7 C 9,4 C 7,2 C 97 % 1011,5 hPa 0,0 l/m 0 min 2 min 0 W/m 9,7 km/h (2 Bft) 98,15 %
02.01.2022 20:10 10,7 C 9,4 C 7,2 C 97 % 1011,5 hPa 0,0 l/m 0 min 2 min 0 W/m 9,7 km/h (2 Bft) 97,14 %
02.01.2022 20:12 10,7 C 9,4 C 7,2 C 97 % 1011,4 hPa 0,2 l/m 0 min 2 min 0 W/m 22,5 km/h (4 Bft) 98,31 %
02.01.2022 20:14 10,6 C 9,4 C 7,2 C 97 % 1011,4 hPa 0,0 l/m 0 min 2 min 0 W/m 16,1 km/h (3 Bft) 97,14 %
02.01.2022 20:16 10,6 C 9,4 C 7,2 C 97 % 1011,3 hPa 0,0 l/m 0 min 0 min 0 W/m 12,9 km/h (3 Bft) 97,87 %
02.01.2022 20:18 10,6 C 9,4 C 7,2 C 97 % 1011,3 hPa 0,0 l/m 0 min 0 min 0 W/m 12,9 km/h (3 Bft) 97,83 %
02.01.2022 20:20 10,6 C 9,4 C 7,2 C 97 % 1011,2 hPa 0,0 l/m 0 min 0 min 0 W/m 16,1 km/h (3 Bft) 97,87 %
02.01.2022 20:22 10,6 C 9,4 C 7,2 C 97 % 1011,3 hPa 0,0 l/m 0 min 0 min 0 W/m 12,9 km/h (3 Bft) 96,61 %
02.01.2022 20:24 10,6 C 9,4 C 7,2 C 97 % 1011,3 hPa 0,0 l/m 0 min 0 min 0 W/m 16,1 km/h (3 Bft) 97,14 %
02.01.2022 20:26 10,6 C 9,4 C 7,2 C 97 % 1011,3 hPa 0,0 l/m 0 min 0 min 0 W/m 22,5 km/h (4 Bft) 97,87 %
02.01.2022 20:28 10,6 C 9,4 C 7,2 C 97 % 1011,4 hPa 0,0 l/m 0 min 0 min 0 W/m 16,1 km/h (3 Bft) 100,00 %
02.01.2022 20:30 10,6 C 9,4 C 7,2 C 97 % 1011,3 hPa 0,2 l/m 0 min 2 min 0 W/m 12,9 km/h (3 Bft) 97,87 %
02.01.2022 20:32 10,6 C 9,4 C 7,2 C 97 % 1011,3 hPa 0,0 l/m 0 min 2 min 0 W/m 19,3 km/h (3 Bft) 100,00 %
02.01.2022 20:34 10,5 C 9,4 C 7,2 C 97 % 1011,4 hPa 0,4 l/m 0 min 2 min 0 W/m 12,9 km/h (3 Bft) 100,00 %
02.01.2022 20:36 10,5 C 9,4 C 7,2 C 97 % 1011,5 hPa 0,2 l/m 0 min 2 min 0 W/m 19,3 km/h (3 Bft) 98,31 %
02.01.2022 20:38 10,5 C 9,4 C 7,2 C 97 % 1011,5 hPa 0,2 l/m 0 min 2 min 0 W/m 16,1 km/h (3 Bft) 97,14 %
02.01.2022 20:40 10,5 C 9,4 C 7,2 C 97 % 1011,5 hPa 0,0 l/m 0 min 2 min 0 W/m 25,7 km/h (4 Bft) 100,00 %
02.01.2022 20:42 10,5 C 9,4 C 7,2 C 97 % 1011,2 hPa 0,4 l/m 0 min 2 min 0 W/m 12,9 km/h (3 Bft) 97,83 %
02.01.2022 20:44 10,5 C 9,4 C 7,2 C 97 % 1010,9 hPa 0,0 l/m 0 min 2 min 0 W/m 16,1 km/h (3 Bft) 100,00 %
02.01.2022 20:46 10,4 C 9,4 C 7,2 C 97 % 1010,7 hPa 0,2 l/m 0 min 2 min 0 W/m 6,4 km/h (2 Bft) 100,00 %
02.01.2022 20:48 10,4 C 9,4 C 7,2 C 97 % 1011,1 hPa 0,0 l/m 0 min 2 min 0 W/m 16,1 km/h (3 Bft) 100,00 %
02.01.2022 20:50 10,4 C 9,4 C 7,2 C 97 % 1011,0 hPa 0,6 l/m 0 min 2 min 0 W/m 16,1 km/h (3 Bft) 100,00 %
02.01.2022 20:52 10,4 C 9,4 C 7,2 C 97 % 1011,0 hPa 0,2 l/m 0 min 2 min 0 W/m 12,9 km/h (3 Bft) 100,00 %
02.01.2022 20:54 10,4 C 9,4 C 7,2 C 97 % 1010,9 hPa 0,2 l/m 0 min 2 min 0 W/m 12,9 km/h (3 Bft) 97,83 %
02.01.2022 20:56 10,4 C 9,4 C 7,2 C 97 % 1011,0 hPa 0,0 l/m 0 min 2 min 0 W/m 6,4 km/h (2 Bft) 100,00 %
02.01.2022 20:58 10,4 C 9,4 C 7,2 C 97 % 1011,1 hPa 0,0 l/m 0 min 2 min 0 W/m 9,7 km/h (2 Bft) 95,74 %
02.01.2022 21:00 10,4 C 9,4 C 7,2 C 97 % 1011,0 hPa 0,2 l/m 0 min 2 min 0 W/m 6,4 km/h (2 Bft) 100,00 %
02.01.2022 21:02 10,4 C 9,4 C 7,2 C 98 % 1011,1 hPa 0,2 l/m 0 min 2 min 0 W/m 12,9 km/h (3 Bft) 100,00 %
02.01.2022 21:04 10,4 C 9,4 C 7,2 C 98 % 1011,4 hPa 0,8 l/m 0 min 2 min 0 W/m 16,1 km/h (3 Bft) 100,00 %
02.01.2022 21:06 10,4 C 9,4 C 7,2 C 98 % 1011,7 hPa 1,8 l/m 0 min 2 min 0 W/m 9,7 km/h (2 Bft) 100,00 %
02.01.2022 21:08 10,4 C 9,4 C 7,2 C 98 % 1011,3 hPa 0,6 l/m 0 min 2 min 0 W/m 12,9 km/h (3 Bft) 94,92 %
02.01.2022 21:10 10,3 C 9,4 C 7,2 C 98 % 1011,2 hPa 0,2 l/m 0 min 2 min 0 W/m 16,1 km/h (3 Bft) 100,00 %
02.01.2022 21:12 10,3 C 8,9 C 6,7 C 98 % 1011,2 hPa 0,2 l/m 0 min 2 min 0 W/m 38,6 km/h (5 Bft) 97,87 %
02.01.2022 21:14 10,2 C 8,9 C 6,7 C 97 % 1011,0 hPa 0,0 l/m 0 min 2 min 0 W/m 45,1 km/h (6 Bft) 97,87 %
02.01.2022 21:16 10,1 C 8,9 C 6,7 C 97 % 1010,9 hPa 0,2 l/m 0 min 2 min 0 W/m 19,3 km/h (3 Bft) 95,74 %
02.01.2022 21:18 10,1 C 8,9 C 6,7 C 97 % 1010,7 hPa 0,0 l/m 0 min 2 min 0 W/m 22,5 km/h (4 Bft) 93,48 %
02.01.2022 21:20 10,1 C 8,3 C 6,7 C 97 % 1010,7 hPa 0,2 l/m 0 min 2 min 0 W/m 25,7 km/h (4 Bft) 97,87 %
02.01.2022 21:22 10,1 C 8,3 C 6,7 C 97 % 1010,7 hPa 0,0 l/m 0 min 2 min 0 W/m 16,1 km/h (3 Bft) 97,87 %
02.01.2022 21:24 10,1 C 8,3 C 6,7 C 97 % 1010,6 hPa 0,0 l/m 0 min 2 min 0 W/m 22,5 km/h (4 Bft) 95,74 %
02.01.2022 21:26 10,2 C 8,3 C 6,7 C 97 % 1010,5 hPa 0,0 l/m 0 min 2 min 0 W/m 25,7 km/h (4 Bft) 97,87 %
02.01.2022 21:28 10,2 C 8,9 C 6,7 C 96 % 1010,5 hPa 0,0 l/m 0 min 0 min 0 W/m 22,5 km/h (4 Bft) 93,62 %
02.01.2022 21:30 10,2 C 8,3 C 6,7 C 96 % 1010,5 hPa 0,0 l/m 0 min 0 min 0 W/m 22,5 km/h (4 Bft) 95,65 %
02.01.2022 21:32 10,2 C 8,3 C 6,7 C 96 % 1010,4 hPa 0,0 l/m 0 min 0 min 0 W/m 22,5 km/h (4 Bft) 95,74 %
02.01.2022 21:34 10,2 C 8,3 C 6,7 C 95 % 1010,5 hPa 0,0 l/m 0 min 0 min 0 W/m 19,3 km/h (3 Bft) 95,74 %
02.01.2022 21:36 10,2 C 8,9 C 6,7 C 95 % 1010,4 hPa 0,0 l/m 0 min 0 min 0 W/m 32,2 km/h (5 Bft) 95,74 %
02.01.2022 21:38 10,3 C 8,9 C 6,7 C 95 % 1010,5 hPa 0,0 l/m 0 min 0 min 0 W/m 19,3 km/h (3 Bft) 96,55 %
02.01.2022 21:40 10,2 C 9,4 C 6,1 C 94 % 1010,4 hPa 0,0 l/m 0 min 0 min 0 W/m 29,0 km/h (5 Bft) 97,22 %
02.01.2022 21:42 10,2 C 9,4 C 6,1 C 94 % 1010,5 hPa 0,0 l/m 0 min 0 min 0 W/m 22,5 km/h (4 Bft) 97,83 %
02.01.2022 21:44 10,3 C 9,4 C 6,1 C 94 % 1010,5 hPa 0,0 l/m 0 min 0 min 0 W/m 22,5 km/h (4 Bft) 97,87 %
02.01.2022 21:46 10,2 C 8,9 C 6,1 C 94 % 1010,5 hPa 0,0 l/m 0 min 0 min 0 W/m 25,7 km/h (4 Bft) 97,87 %
02.01.2022 21:48 10,2 C 8,9 C 6,1 C 93 % 1010,5 hPa 0,0 l/m 0 min 0 min 0 W/m 19,3 km/h (3 Bft) 97,87 %
02.01.2022 21:50 10,2 C 9,4 C 6,1 C 93 % 1010,5 hPa 0,0 l/m 0 min 0 min 0 W/m 57,9 km/h (7 Bft) 100,00 %
02.01.2022 21:52 10,3 C 9,4 C 6,1 C 93 % 1010,5 hPa 0,0 l/m 0 min 0 min 0 W/m 25,7 km/h (4 Bft) 100,00 %
02.01.2022 21:54 10,3 C 9,4 C 6,1 C 93 % 1010,7 hPa 0,0 l/m 0 min 0 min 0 W/m 29,0 km/h (5 Bft) 100,00 %
02.01.2022 21:56 10,3 C 9,4 C 6,7 C 93 % 1010,7 hPa 0,0 l/m 0 min 0 min 0 W/m 32,2 km/h (5 Bft) 97,87 %
02.01.2022 21:58 10,3 C 9,4 C 6,7 C 93 % 1010,7 hPa 0,0 l/m 0 min 0 min 0 W/m 41,8 km/h (6 Bft) 100,00 %
02.01.2022 22:00 10,4 C 9,4 C 6,7 C 93 % 1010,7 hPa 0,0 l/m 0 min 0 min 0 W/m 41,8 km/h (6 Bft) 100,00 %
02.01.2022 22:02 10,4 C 9,4 C 6,7 C 93 % 1010,7 hPa 0,0 l/m 0 min 0 min 0 W/m 22,5 km/h (4 Bft) 97,92 %
02.01.2022 22:04 10,3 C 9,4 C 6,7 C 94 % 1010,7 hPa 0,0 l/m 0 min 0 min 0 W/m 32,2 km/h (5 Bft) 100,00 %
02.01.2022 22:06 10,3 C 9,4 C 6,7 C 94 % 1010,7 hPa 0,0 l/m 0 min 0 min 0 W/m 38,6 km/h (5 Bft) 100,00 %
02.01.2022 22:08 10,4 C 9,4 C 6,7 C 94 % 1010,6 hPa 0,0 l/m 0 min 0 min 0 W/m 22,5 km/h (4 Bft) 100,00 %
02.01.2022 22:10 10,4 C 9,4 C 6,7 C 94 % 1010,6 hPa 0,0 l/m 0 min 0 min 0 W/m 22,5 km/h (4 Bft) 100,00 %
02.01.2022 22:12 10,4 C 9,4 C 6,7 C 94 % 1010,6 hPa 0,0 l/m 0 min 0 min 0 W/m 25,7 km/h (4 Bft) 97,87 %
02.01.2022 22:14 10,4 C 9,4 C 6,7 C 94 % 1010,6 hPa 0,0 l/m 0 min 0 min 0 W/m 19,3 km/h (3 Bft) 100,00 %
02.01.2022 22:16 10,3 C 9,4 C 6,7 C 94 % 1010,5 hPa 0,0 l/m 0 min 0 min 0 W/m 32,2 km/h (5 Bft) 100,00 %
02.01.2022 22:18 10,3 C 9,4 C 6,7 C 94 % 1010,7 hPa 0,0 l/m 0 min 0 min 0 W/m 32,2 km/h (5 Bft) 100,00 %
02.01.2022 22:20 10,3 C 9,4 C 6,7 C 94 % 1010,6 hPa 0,0 l/m 0 min 0 min 0 W/m 19,3 km/h (3 Bft) 100,00 %
02.01.2022 22:22 10,3 C 9,4 C 6,7 C 94 % 1010,7 hPa 0,0 l/m 0 min 0 min 0 W/m 38,6 km/h (5 Bft) 100,00 %
02.01.2022 22:24 10,3 C 9,4 C 6,7 C 94 % 1010,6 hPa 0,0 l/m 0 min 0 min 0 W/m 25,7 km/h (4 Bft) 100,00 %
02.01.2022 22:26 10,4 C 9,4 C 6,7 C 94 % 1010,7 hPa 0,0 l/m 0 min 0 min 0 W/m 29,0 km/h (5 Bft) 100,00 %
02.01.2022 22:28 10,4 C 9,4 C 6,7 C 94 % 1010,7 hPa 0,0 l/m 0 min 0 min 0 W/m 29,0 km/h (5 Bft) 100,00 %
02.01.2022 22:30 10,4 C 9,4 C 6,7 C 94 % 1010,7 hPa 0,0 l/m 0 min 0 min 0 W/m 19,3 km/h (3 Bft) 100,00 %
02.01.2022 22:32 10,3 C 9,4 C 6,7 C 94 % 1010,8 hPa 0,0 l/m 0 min 2 min 0 W/m 25,7 km/h (4 Bft) 100,00 %
02.01.2022 22:34 10,3 C 9,4 C 6,7 C 94 % 1010,7 hPa 0,0 l/m 0 min 0 min 0 W/m 16,1 km/h (3 Bft) 100,00 %
02.01.2022 22:36 10,3 C 9,4 C 6,7 C 94 % 1010,9 hPa 0,0 l/m 0 min 0 min 0 W/m 16,1 km/h (3 Bft) 100,00 %
02.01.2022 22:38 10,3 C 9,4 C 6,7 C 94 % 1010,9 hPa 0,0 l/m 0 min 0 min 0 W/m 16,1 km/h (3 Bft) 97,87 %
02.01.2022 22:40 10,3 C 9,4 C 6,7 C 94 % 1010,9 hPa 0,0 l/m 0 min 0 min 0 W/m 35,4 km/h (5 Bft) 95,65 %
02.01.2022 22:42 10,3 C 9,4 C 6,7 C 94 % 1011,1 hPa 0,0 l/m 0 min 0 min 0 W/m 25,7 km/h (4 Bft) 97,87 %
02.01.2022 22:44 10,3 C 9,4 C 6,7 C 94 % 1011,0 hPa 0,0 l/m 0 min 0 min 0 W/m 32,2 km/h (5 Bft) 97,87 %
02.01.2022 22:46 10,3 C 9,4 C 6,7 C 94 % 1011,1 hPa 0,0 l/m 0 min 0 min 0 W/m 25,7 km/h (4 Bft) 97,87 %
02.01.2022 22:48 10,3 C 9,4 C 6,7 C 94 % 1011,0 hPa 0,0 l/m 0 min 0 min 0 W/m 22,5 km/h (4 Bft) 95,74 %
02.01.2022 22:50 10,3 C 9,4 C 6,7 C 94 % 1011,0 hPa 0,2 l/m 0 min 0 min 0 W/m 35,4 km/h (5 Bft) 95,74 %
02.01.2022 22:52 10,3 C 9,4 C 6,7 C 94 % 1011,0 hPa 0,0 l/m 0 min 0 min 0 W/m 25,7 km/h (4 Bft) 97,83 %
02.01.2022 22:54 10,4 C 9,4 C 6,7 C 94 % 1011,0 hPa 0,0 l/m 0 min 2 min 0 W/m 25,7 km/h (4 Bft) 97,87 %
02.01.2022 22:56 10,4 C 9,4 C 6,7 C 94 % 1010,8 hPa 0,0 l/m 0 min 2 min 0 W/m 19,3 km/h (3 Bft) 95,74 %
02.01.2022 22:58 10,4 C 9,4 C 6,7 C 94 % 1011,1 hPa 0,0 l/m 0 min 2 min 0 W/m 25,7 km/h (4 Bft) 97,87 %
02.01.2022 23:00 10,4 C 9,4 C 6,7 C 94 % 1011,1 hPa 0,0 l/m 0 min 2 min 0 W/m 35,4 km/h (5 Bft) 95,74 %
02.01.2022 23:02 10,4 C 9,4 C 6,7 C 94 % 1010,9 hPa 0,0 l/m 0 min 2 min 0 W/m 22,5 km/h (4 Bft) 95,74 %
02.01.2022 23:04 10,4 C 9,4 C 6,7 C 94 % 1011,1 hPa 0,0 l/m 0 min 2 min 0 W/m 19,3 km/h (3 Bft) 95,65 %
02.01.2022 23:06 10,4 C 9,4 C 6,7 C 94 % 1011,1 hPa 0,0 l/m 0 min 2 min 0 W/m 19,3 km/h (3 Bft) 93,62 %
02.01.2022 23:08 10,4 C 9,4 C 6,7 C 94 % 1010,9 hPa 0,0 l/m 0 min 2 min 0 W/m 29,0 km/h (5 Bft) 95,74 %
02.01.2022 23:10 10,4 C 9,4 C 6,7 C 93 % 1011,1 hPa 0,0 l/m 0 min 2 min 0 W/m 25,7 km/h (4 Bft) 95,74 %
02.01.2022 23:12 10,4 C 9,4 C 6,7 C 94 % 1011,1 hPa 0,0 l/m 0 min 2 min 0 W/m 29,0 km/h (5 Bft) 93,62 %
02.01.2022 23:14 10,4 C 9,4 C 6,7 C 93 % 1011,1 hPa 0,0 l/m 0 min 2 min 0 W/m 32,2 km/h (5 Bft) 93,62 %
02.01.2022 23:16 10,3 C 9,4 C 6,7 C 93 % 1011,2 hPa 0,0 l/m 0 min 0 min 0 W/m 29,0 km/h (5 Bft) 95,65 %
02.01.2022 23:18 10,3 C 9,4 C 6,7 C 93 % 1011,2 hPa 0,0 l/m 0 min 0 min 0 W/m 32,2 km/h (5 Bft) 93,62 %
02.01.2022 23:20 10,3 C 9,4 C 6,7 C 93 % 1011,3 hPa 0,0 l/m 0 min 0 min 0 W/m 29,0 km/h (5 Bft) 95,74 %
02.01.2022 23:22 10,3 C 9,4 C 6,7 C 93 % 1011,3 hPa 0,0 l/m 0 min 0 min 0 W/m 25,7 km/h (4 Bft) 95,74 %
02.01.2022 23:24 10,3 C 9,4 C 6,7 C 93 % 1011,4 hPa 0,0 l/m 0 min 0 min 0 W/m 25,7 km/h (4 Bft) 95,74 %
02.01.2022 23:26 10,3 C 9,4 C 6,7 C 93 % 1011,3 hPa 0,0 l/m 0 min 0 min 0 W/m 38,6 km/h (5 Bft) 93,62 %
02.01.2022 23:28 10,3 C 9,4 C 6,7 C 93 % 1011,3 hPa 0,0 l/m 0 min 0 min 0 W/m 29,0 km/h (5 Bft) 95,65 %
02.01.2022 23:30 10,3 C 9,4 C 6,7 C 93 % 1011,5 hPa 0,0 l/m 0 min 0 min 0 W/m 22,5 km/h (4 Bft) 93,62 %
02.01.2022 23:32 10,3 C 9,4 C 6,7 C 93 % 1011,6 hPa 0,0 l/m 0 min 0 min 0 W/m 32,2 km/h (5 Bft) 97,87 %
02.01.2022 23:34 10,3 C 9,4 C 6,7 C 93 % 1011,6 hPa 0,0 l/m 0 min 0 min 0 W/m 19,3 km/h (3 Bft) 100,00 %
02.01.2022 23:36 10,3 C 9,4 C 6,7 C 93 % 1011,6 hPa 0,0 l/m 0 min 0 min 0 W/m 29,0 km/h (5 Bft) 97,87 %
02.01.2022 23:38 10,3 C 9,4 C 6,7 C 93 % 1011,7 hPa 0,0 l/m 0 min 0 min 0 W/m 19,3 km/h (3 Bft) 97,83 %
02.01.2022 23:40 10,3 C 9,4 C 6,7 C 93 % 1011,7 hPa 0,0 l/m 0 min 0 min 0 W/m 19,3 km/h (3 Bft) 100,00 %
02.01.2022 23:42 10,3 C 9,4 C 6,7 C 93 % 1011,8 hPa 0,0 l/m 0 min 0 min 0 W/m 16,1 km/h (3 Bft) 100,00 %
02.01.2022 23:44 10,3 C 9,4 C 6,7 C 93 % 1011,8 hPa 0,0 l/m 0 min 0 min 0 W/m 25,7 km/h (4 Bft) 95,74 %
02.01.2022 23:46 10,3 C 9,4 C 6,7 C 93 % 1011,8 hPa 0,0 l/m 0 min 0 min 0 W/m 22,5 km/h (4 Bft) 97,87 %
02.01.2022 23:48 10,3 C 9,4 C 6,7 C 93 % 1011,9 hPa 0,0 l/m 0 min 0 min 0 W/m 25,7 km/h (4 Bft) 95,74 %
02.01.2022 23:50 10,3 C 9,4 C 6,7 C 93 % 1011,9 hPa 0,0 l/m 0 min 0 min 0 W/m 32,2 km/h (5 Bft) 95,74 %
02.01.2022 23:52 10,3 C 9,4 C 6,7 C 93 % 1011,8 hPa 0,0 l/m 0 min 0 min 0 W/m 35,4 km/h (5 Bft) 95,65 %
02.01.2022 23:54 10,3 C 9,4 C 6,7 C 93 % 1011,9 hPa 0,0 l/m 0 min 0 min 0 W/m 25,7 km/h (4 Bft) 97,87 %
02.01.2022 23:56 10,3 C 9,4 C 6,7 C 92 % 1012,0 hPa 0,0 l/m 0 min 0 min 0 W/m 29,0 km/h (5 Bft) 97,87 %
02.01.2022 23:58 10,3 C 9,4 C 6,7 C 92 % 1011,9 hPa 0,0 l/m 0 min 0 min 0 W/m 16,1 km/h (3 Bft) 97,87 %
_ Min-Zeit 06:00 21:20 21:40 11:14 21:32 - - - - 02:58 11:32
Minimum _ 9,9 C 8,3 C 6,1 C 82 % 1010,4 hPa - - - - 3,2 km/h (1 Bft) 51,16 %
_ Max-Zeit 14:20 12:28 12:08 21:02 00:04 21:06 11:50 02:32 14:08 21:50 00:58
Maximum _ 13,7 C 13,9 C 10,0 C 98 % 1019,8 hPa 1,8 l/m 2 min 2 min 313 W/m 57,9 km/h
SO (7 Bft)
100,00 %
Durchschnitt _ 11,1 C 10,3 C 7,6 C 92 % 1014,2 hPa #15,0 l/m #26 min. #5:28 h 54 W/m 18,3 km/h (3 Bft) 97,51 %
© 2022 W. Hausmann